Time,TemperatureF,DewpointF,PressureIn,WindDirection,WindDirectionDegrees,WindSpeedMPH,WindSpeedGustMPH,Humidity,HourlyPrecipIn,Conditions,Clouds,dailyrainin,SoftwareType,DateUTC
2013-04-04 00:00:00,42.4,19.2,29.82,South,180,25.5,25.5,39,0.00,,,0.00,VWS V14.01,2013-04-04 05:00:00,
2013-04-04 00:02:00,42.3,19.1,29.82,South,180,25.5,25.5,39,0.00,,,0.00,VWS V14.01,2013-04-04 05:02:00,
2013-04-04 00:04:00,42.3,19.1,29.82,South,180,25.5,25.5,39,0.00,,,0.00,VWS V14.01,2013-04-04 05:04:00,
2013-04-04 00:06:00,42.3,19.1,29.82,WSW,248,18.1,18.1,39,0.00,,,0.00,VWS V14.01,2013-04-04 05:06:00,
2013-04-04 00:08:00,42.3,19.1,29.82,SW,225,9.4,9.6,39,0.00,,,0.00,VWS V14.01,2013-04-04 05:08:00,
2013-04-04 00:10:00,42.3,19.1,29.79,SSW,202,12.1,12.1,39,0.00,,,0.00,VWS V14.01,2013-04-04 05:10:00,
2013-04-04 00:12:00,42.3,19.1,29.79,SE,135,11.4,11.4,39,0.00,,,0.00,VWS V14.01,2013-04-04 05:12:00,
2013-04-04 00:14:00,42.3,19.1,29.79,SW,225,38.9,38.9,39,0.00,,,0.00,VWS V14.01,2013-04-04 05:14:00,
2013-04-04 00:16:00,42.3,19.1,29.79,South,180,8.7,13.0,39,0.00,,,0.00,VWS V14.01,2013-04-04 05:16:00,
2013-04-04 00:18:00,42.1,18.9,29.79,SSW,202,10.1,13.0,39,0.00,,,0.00,VWS V14.01,2013-04-04 05:18:00,
2013-04-04 00:20:00,42.1,18.9,29.79,SSW,202,12.8,13.0,39,0.00,,,0.00,VWS V14.01,2013-04-04 05:20:00,
2013-04-04 00:22:00,42.1,18.9,29.79,SSW,202,18.8,18.8,39,0.00,,,0.00,VWS V14.01,2013-04-04 05:22:00,
2013-04-04 00:24:00,42.1,18.9,29.79,SSW,202,18.8,18.8,39,0.00,,,0.00,VWS V14.01,2013-04-04 05:24:00,
2013-04-04 00:26:00,42.3,19.1,29.82,SSW,202,18.8,18.8,39,0.00,,,0.00,VWS V14.01,2013-04-04 05:26:00,
2013-04-04 00:28:00,42.3,19.1,29.82,South,180,26.2,26.2,39,0.00,,,0.00,VWS V14.01,2013-04-04 05:28:00,
2013-04-04 00:30:00,42.3,19.1,29.82,ESE,112,10.1,13.0,39,0.00,,,0.00,VWS V14.01,2013-04-04 05:30:00,
2013-04-04 00:32:00,42.1,18.9,29.82,WSW,248,19.5,19.5,39,0.00,,,0.00,VWS V14.01,2013-04-04 05:32:00,
2013-04-04 00:34:00,42.1,18.9,29.82,WNW,292,18.8,18.8,39,0.00,,,0.00,VWS V14.01,2013-04-04 05:34:00,
2013-04-04 00:36:00,42.1,18.9,29.82,South,180,20.8,20.8,39,0.00,,,0.00,VWS V14.01,2013-04-04 05:36:00,
2013-04-04 00:38:00,42.1,18.9,29.82,SSW,202,13.4,13.4,39,0.00,,,0.00,VWS V14.01,2013-04-04 05:38:00,
2013-04-04 00:40:00,42.1,18.9,29.82,SSW,202,10.1,13.0,39,0.00,,,0.00,VWS V14.01,2013-04-04 05:40:00,
2013-04-04 00:52:00,41.7,18.6,29.82,SSW,202,18.8,18.8,39,0.00,,,0.00,VWS V14.01,2013-04-04 05:52:00,
2013-04-04 00:54:00,41.9,18.8,29.82,SSW,202,38.9,38.9,39,0.00,,,0.00,VWS V14.01,2013-04-04 05:54:00,
2013-04-04 00:56:00,41.5,18.4,29.82,SSW,202,26.9,26.9,39,0.00,,,0.00,VWS V14.01,2013-04-04 05:56:00,
2013-04-04 00:58:00,41.7,18.6,29.82,South,180,22.8,22.8,39,0.00,,,0.00,VWS V14.01,2013-04-04 05:58:00,
2013-04-04 01:00:00,41.7,19.2,29.82,South,180,12.1,13.0,40,0.00,,,0.00,VWS V14.01,2013-04-04 06:00:00,
2013-04-04 01:02:00,41.5,19.0,29.82,South,180,12.1,13.0,40,0.00,,,0.00,VWS V14.01,2013-04-04 06:02:00,
2013-04-04 01:04:00,41.5,19.0,29.82,SSW,202,37.6,37.6,40,0.00,,,0.00,VWS V14.01,2013-04-04 06:04:00,
2013-04-04 01:06:00,41.4,18.9,29.82,SSW,202,28.9,28.9,40,0.00,,,0.00,VWS V14.01,2013-04-04 06:06:00,
2013-04-04 01:08:00,41.4,18.9,29.82,SSW,202,29.5,29.5,40,0.00,,,0.00,VWS V14.01,2013-04-04 06:08:00,
2013-04-04 01:10:00,41.4,18.9,29.79,SSW,202,25.5,25.5,40,0.00,,,0.00,VWS V14.01,2013-04-04 06:10:00,
2013-04-04 01:12:00,41.4,18.9,29.79,SW,225,26.2,26.2,40,0.00,,,0.00,VWS V14.01,2013-04-04 06:12:00,
2013-04-04 01:14:00,41.2,18.7,29.79,South,180,13.4,13.4,40,0.00,,,0.00,VWS V14.01,2013-04-04 06:14:00,
2013-04-04 01:22:00,41.0,18.5,29.79,WNW,292,8.1,13.0,40,0.00,,,0.00,VWS V14.01,2013-04-04 06:22:00,
2013-04-04 01:24:00,41.0,18.5,29.79,SW,225,30.2,30.2,40,0.00,,,0.00,VWS V14.01,2013-04-04 06:24:00,
2013-04-04 01:26:00,40.8,19.0,29.79,SW,225,10.1,13.0,41,0.00,,,0.00,VWS V14.01,2013-04-04 06:26:00,
2013-04-04 01:28:00,40.8,19.0,29.79,SSW,202,19.5,19.5,41,0.00,,,0.00,VWS V14.01,2013-04-04 06:28:00,
2013-04-04 01:30:00,40.8,19.0,29.79,South,180,10.7,13.0,41,0.00,,,0.00,VWS V14.01,2013-04-04 06:30:00,
2013-04-04 01:32:00,40.8,19.0,29.79,South,180,10.7,13.0,41,0.00,,,0.00,VWS V14.01,2013-04-04 06:32:00,
2013-04-04 01:46:00,40.5,19.2,29.79,SSW,202,20.8,20.8,42,0.00,,,0.00,VWS V14.01,2013-04-04 06:46:00,
2013-04-04 01:48:00,40.3,19.0,29.79,SSW,202,20.8,20.8,42,0.00,,,0.00,VWS V14.01,2013-04-04 06:48:00,
2013-04-04 01:50:00,40.1,18.9,29.79,South,180,8.1,13.0,42,0.00,,,0.00,VWS V14.01,2013-04-04 06:50:00,
2013-04-04 01:52:00,40.1,19.4,29.79,South,180,8.1,12.5,43,0.00,,,0.00,VWS V14.01,2013-04-04 06:52:00,
2013-04-04 01:54:00,39.9,19.2,29.79,South,180,8.1,12.5,43,0.00,,,0.00,VWS V14.01,2013-04-04 06:54:00,
2013-04-04 01:56:00,39.9,19.2,29.79,South,180,8.1,12.5,43,0.00,,,0.00,VWS V14.01,2013-04-04 06:56:00,
2013-04-04 01:58:00,39.9,19.2,29.79,South,180,8.1,12.5,43,0.00,,,0.00,VWS V14.01,2013-04-04 06:58:00,
2013-04-04 02:00:00,39.9,19.2,29.79,WSW,248,9.4,12.5,43,0.00,,,0.00,VWS V14.01,2013-04-04 07:00:00,
2013-04-04 02:02:00,39.7,19.1,29.79,WSW,248,9.4,10.1,43,0.00,,,0.00,VWS V14.01,2013-04-04 07:02:00,
2013-04-04 02:04:00,39.7,19.1,29.79,WSW,248,9.4,10.1,43,0.00,,,0.00,VWS V14.01,2013-04-04 07:04:00,
2013-04-04 02:06:00,39.7,19.6,29.79,WSW,248,9.4,10.1,44,0.00,,,0.00,VWS V14.01,2013-04-04 07:06:00,
2013-04-04 02:08:00,39.7,19.6,29.79,WSW,248,9.4,10.1,44,0.00,,,0.00,VWS V14.01,2013-04-04 07:08:00,
2013-04-04 02:10:00,39.7,19.6,29.79,WSW,248,9.4,10.1,44,0.00,,,0.00,VWS V14.01,2013-04-04 07:10:00,
2013-04-04 02:12:00,39.7,19.6,29.79,WSW,248,9.4,10.1,44,0.00,,,0.00,VWS V14.01,2013-04-04 07:12:00,
2013-04-04 02:14:00,39.7,19.6,29.79,WSW,248,9.4,10.1,44,0.00,,,0.00,VWS V14.01,2013-04-04 07:14:00,
2013-04-04 02:16:00,39.7,19.6,29.79,SW,225,22.2,22.2,44,0.00,,,0.00,VWS V14.01,2013-04-04 07:16:00,
2013-04-04 02:18:00,39.7,19.6,29.79,SW,225,22.2,22.2,44,0.00,,,0.00,VWS V14.01,2013-04-04 07:18:00,
2013-04-04 02:20:00,39.7,19.6,29.79,SW,225,22.2,22.2,44,0.00,,,0.00,VWS V14.01,2013-04-04 07:20:00,
2013-04-04 02:22:00,39.6,19.5,29.79,SSE,158,6.7,7.4,44,0.00,,,0.00,VWS V14.01,2013-04-04 07:22:00,
2013-04-04 02:24:00,39.4,19.3,29.79,SSE,158,6.7,7.4,44,0.00,,,0.00,VWS V14.01,2013-04-04 07:24:00,
2013-04-04 02:26:00,39.4,19.8,29.79,South,180,6.0,7.4,45,0.00,,,0.00,VWS V14.01,2013-04-04 07:26:00,
2013-04-04 02:28:00,39.4,19.8,29.79,SW,225,10.7,10.7,45,0.00,,,0.00,VWS V14.01,2013-04-04 07:28:00,
2013-04-04 02:30:00,39.4,19.8,29.79,SSW,202,3.4,7.4,45,0.00,,,0.00,VWS V14.01,2013-04-04 07:30:00,
2013-04-04 02:32:00,39.2,19.7,29.79,SSW,202,4.0,7.4,45,0.00,,,0.00,VWS V14.01,2013-04-04 07:32:00,
2013-04-04 02:34:00,39.2,19.7,29.79,SSW,202,9.4,9.4,45,0.00,,,0.00,VWS V14.01,2013-04-04 07:34:00,
2013-04-04 02:36:00,39.2,20.2,29.79,WSW,248,8.7,8.7,46,0.00,,,0.00,VWS V14.01,2013-04-04 07:36:00,
2013-04-04 02:38:00,39.0,20.5,29.79,WSW,248,8.1,8.1,47,0.00,,,0.00,VWS V14.01,2013-04-04 07:38:00,
2013-04-04 02:40:00,39.0,20.5,29.79,WSW,248,12.8,12.8,47,0.00,,,0.00,VWS V14.01,2013-04-04 07:40:00,
2013-04-04 02:42:00,39.0,20.5,29.79,SSW,202,6.0,7.4,47,0.00,,,0.00,VWS V14.01,2013-04-04 07:42:00,
2013-04-04 02:44:00,39.0,21.0,29.79,SSE,158,6.0,7.4,48,0.00,,,0.00,VWS V14.01,2013-04-04 07:44:00,
2013-04-04 02:46:00,38.8,20.8,29.79,South,180,4.7,7.4,48,0.00,,,0.00,VWS V14.01,2013-04-04 07:46:00,
2013-04-04 02:48:00,38.8,21.3,29.79,West,270,8.1,8.1,49,0.00,,,0.00,VWS V14.01,2013-04-04 07:48:00,
2013-04-04 02:50:00,38.8,21.3,29.79,SSE,158,3.4,7.4,49,0.00,,,0.00,VWS V14.01,2013-04-04 07:50:00,
2013-04-04 02:52:00,38.8,21.3,29.79,SW,225,8.1,8.1,49,0.00,,,0.00,VWS V14.01,2013-04-04 07:52:00,
2013-04-04 02:54:00,38.7,21.2,29.79,SSE,158,4.0,7.4,49,0.00,,,0.00,VWS V14.01,2013-04-04 07:54:00,
2013-04-04 02:56:00,38.7,21.6,29.79,SSW,202,6.0,7.4,50,0.00,,,0.00,VWS V14.01,2013-04-04 07:56:00,
2013-04-04 02:58:00,38.5,21.5,29.79,WSW,248,8.7,8.7,50,0.00,,,0.00,VWS V14.01,2013-04-04 07:58:00,
2013-04-04 03:00:00,38.5,21.5,29.79,West,270,11.4,11.4,50,0.00,,,0.00,VWS V14.01,2013-04-04 08:00:00,
2013-04-04 03:02:00,38.5,21.5,29.79,WSW,248,4.7,4.7,50,0.00,,,0.00,VWS V14.01,2013-04-04 08:02:00,
2013-04-04 03:04:00,38.3,21.3,29.79,WSW,248,4.7,4.7,50,0.00,,,0.00,VWS V14.01,2013-04-04 08:04:00,
2013-04-04 03:06:00,38.3,21.8,29.79,WSW,248,8.7,8.7,51,0.00,,,0.00,VWS V14.01,2013-04-04 08:06:00,
2013-04-04 03:08:00,38.3,22.2,29.79,SSW,202,4.0,4.3,52,0.00,,,0.00,VWS V14.01,2013-04-04 08:08:00,
2013-04-04 03:10:00,38.1,22.1,29.82,WSW,248,2.7,4.3,52,0.00,,,0.00,VWS V14.01,2013-04-04 08:10:00,
2013-04-04 03:12:00,37.9,21.4,29.82,WSW,248,7.4,7.4,51,0.00,,,0.00,VWS V14.01,2013-04-04 08:12:00,
2013-04-04 03:14:00,37.9,21.9,29.82,SW,225,7.4,7.4,52,0.00,,,0.00,VWS V14.01,2013-04-04 08:14:00,
2013-04-04 03:16:00,37.8,22.2,29.82,SSW,202,8.1,8.1,53,0.00,,,0.00,VWS V14.01,2013-04-04 08:16:00,
2013-04-04 03:18:00,37.9,22.8,29.82,West,270,10.7,10.7,54,0.00,,,0.00,VWS V14.01,2013-04-04 08:18:00,
2013-04-04 03:20:00,37.6,22.0,29.82,SW,225,6.7,6.7,53,0.00,,,0.00,VWS V14.01,2013-04-04 08:20:00,
2013-04-04 03:22:00,37.6,22.0,29.82,SSW,202,4.0,4.0,53,0.00,,,0.00,VWS V14.01,2013-04-04 08:22:00,
2013-04-04 03:24:00,37.6,22.5,29.82,SW,225,4.0,4.0,54,0.00,,,0.00,VWS V14.01,2013-04-04 08:24:00,
2013-04-04 03:26:00,37.6,22.5,29.82,SW,225,4.0,4.0,54,0.00,,,0.00,VWS V14.01,2013-04-04 08:26:00,
2013-04-04 03:34:00,37.2,23.0,29.82,WNW,292,0.0,3.8,56,0.00,,,0.00,VWS V14.01,2013-04-04 08:34:00,
2013-04-04 03:36:00,37.0,22.4,29.82,North,0,4.0,4.0,55,0.00,,,0.00,VWS V14.01,2013-04-04 08:36:00,
2013-04-04 03:38:00,37.0,22.4,29.82,WSW,248,6.0,6.0,55,0.00,,,0.00,VWS V14.01,2013-04-04 08:38:00,
2013-04-04 03:40:00,37.0,23.2,29.82,WSW,248,6.0,6.0,57,0.00,,,0.00,VWS V14.01,2013-04-04 08:40:00,
2013-04-04 03:42:00,36.9,23.1,29.82,ESE,112,4.7,4.7,57,0.00,,,0.00,VWS V14.01,2013-04-04 08:42:00,
2013-04-04 03:44:00,36.9,23.1,29.82,ESE,112,6.7,6.7,57,0.00,,,0.00,VWS V14.01,2013-04-04 08:44:00,
2013-04-04 03:46:00,36.7,22.9,29.82,SW,225,4.0,4.0,57,0.00,,,0.00,VWS V14.01,2013-04-04 08:46:00,
2013-04-04 03:48:00,36.7,23.3,29.82,NW,315,4.0,4.0,58,0.00,,,0.00,VWS V14.01,2013-04-04 08:48:00,
2013-04-04 03:50:00,36.7,23.3,29.82,SSW,202,2.7,3.6,58,0.00,,,0.00,VWS V14.01,2013-04-04 08:50:00,
2013-04-04 03:52:00,36.7,23.3,29.82,SSW,202,4.0,4.0,58,0.00,,,0.00,VWS V14.01,2013-04-04 08:52:00,
2013-04-04 03:54:00,36.5,23.1,29.82,South,180,9.4,9.4,58,0.00,,,0.00,VWS V14.01,2013-04-04 08:54:00,
2013-04-04 03:56:00,36.3,23.0,29.82,SW,225,3.4,3.6,58,0.00,,,0.00,VWS V14.01,2013-04-04 08:56:00,
2013-04-04 03:58:00,36.3,23.0,29.82,South,180,7.4,7.4,58,0.00,,,0.00,VWS V14.01,2013-04-04 08:58:00,
2013-04-04 04:00:00,36.1,22.8,29.82,SW,225,0.0,3.6,58,0.00,,,0.00,VWS V14.01,2013-04-04 09:00:00,
2013-04-04 04:02:00,36.1,22.8,29.82,SSE,158,4.7,4.7,58,0.00,,,0.00,VWS V14.01,2013-04-04 09:02:00,
2013-04-04 04:04:00,36.1,23.2,29.82,WNW,292,0.0,3.1,59,0.00,,,0.00,VWS V14.01,2013-04-04 09:04:00,
2013-04-04 04:06:00,36.1,23.2,29.82,ESE,112,8.7,8.7,59,0.00,,,0.00,VWS V14.01,2013-04-04 09:06:00,
2013-04-04 04:08:00,36.0,23.0,29.82,SSW,202,0.0,3.1,59,0.00,,,0.00,VWS V14.01,2013-04-04 09:08:00,
2013-04-04 04:10:00,36.0,23.4,29.82,SSE,158,6.0,6.0,60,0.00,,,0.00,VWS V14.01,2013-04-04 09:10:00,
2013-04-04 04:12:00,36.0,23.4,29.82,South,180,4.0,4.0,60,0.00,,,0.00,VWS V14.01,2013-04-04 09:12:00,
2013-04-04 04:14:00,36.0,24.2,29.82,WSW,248,4.7,4.7,62,0.00,,,0.00,VWS V14.01,2013-04-04 09:14:00,
2013-04-04 04:16:00,36.0,24.2,29.82,WSW,248,4.0,4.0,62,0.00,,,0.00,VWS V14.01,2013-04-04 09:16:00,
2013-04-04 04:26:00,36.0,24.6,29.82,NW,315,10.7,10.7,63,0.00,,,0.00,VWS V14.01,2013-04-04 09:26:00,
2013-04-04 04:28:00,36.0,25.0,29.82,SSE,158,4.7,4.7,64,0.00,,,0.00,VWS V14.01,2013-04-04 09:28:00,
2013-04-04 04:34:00,35.8,24.4,29.82,NNW,338,6.7,6.7,63,0.00,,,0.00,VWS V14.01,2013-04-04 09:34:00,
2013-04-04 04:36:00,35.8,24.4,29.82,NNW,338,4.0,4.0,63,0.00,,,0.00,VWS V14.01,2013-04-04 09:36:00,
2013-04-04 04:38:00,35.8,24.4,29.82,NNW,338,10.1,10.1,63,0.00,,,0.00,VWS V14.01,2013-04-04 09:38:00,
2013-04-04 04:40:00,35.8,24.0,29.82,NNW,338,12.8,12.8,62,0.00,,,0.00,VWS V14.01,2013-04-04 09:40:00,
2013-04-04 04:42:00,35.8,24.8,29.82,WNW,292,8.1,8.1,64,0.00,,,0.00,VWS V14.01,2013-04-04 09:42:00,
2013-04-04 04:50:00,35.6,24.3,29.82,NNW,338,4.0,4.3,63,0.00,,,0.00,VWS V14.01,2013-04-04 09:50:00,
2013-04-04 04:52:00,35.6,23.9,29.82,NNW,338,0.0,4.3,62,0.00,,,0.00,VWS V14.01,2013-04-04 09:52:00,
2013-04-04 04:54:00,35.6,24.3,29.82,NNW,338,11.4,11.4,63,0.00,,,0.00,VWS V14.01,2013-04-04 09:54:00,
2013-04-04 04:56:00,35.6,24.3,29.82,WNW,292,10.1,10.1,63,0.00,,,0.00,VWS V14.01,2013-04-04 09:56:00,
2013-04-04 04:58:00,35.6,24.6,29.82,NNW,338,9.4,9.4,64,0.00,,,0.00,VWS V14.01,2013-04-04 09:58:00,
2013-04-04 05:00:00,35.6,24.6,29.82,NNW,338,4.0,4.3,64,0.00,,,0.00,VWS V14.01,2013-04-04 10:00:00,
2013-04-04 05:02:00,35.6,24.3,29.82,West,270,4.7,4.7,63,0.00,,,0.00,VWS V14.01,2013-04-04 10:02:00,
2013-04-04 05:04:00,35.6,24.3,29.82,NW,315,8.1,8.1,63,0.00,,,0.00,VWS V14.01,2013-04-04 10:04:00,
2013-04-04 05:06:00,35.4,24.1,29.82,NNW,338,14.1,14.1,63,0.00,,,0.00,VWS V14.01,2013-04-04 10:06:00,
2013-04-04 05:08:00,35.4,24.1,29.82,NNW,338,6.0,6.0,63,0.00,,,0.00,VWS V14.01,2013-04-04 10:08:00,
2013-04-04 05:10:00,35.4,24.5,29.82,NNW,338,20.8,20.8,64,0.00,,,0.00,VWS V14.01,2013-04-04 10:10:00,
2013-04-04 05:12:00,35.6,24.3,29.82,WNW,292,4.7,6.9,63,0.00,,,0.00,VWS V14.01,2013-04-04 10:12:00,
2013-04-04 05:14:00,35.6,23.9,29.82,NNE,22,11.4,11.4,62,0.00,,,0.00,VWS V14.01,2013-04-04 10:14:00,
2013-04-04 05:16:00,35.6,23.9,29.82,NNW,338,2.7,6.9,62,0.00,,,0.00,VWS V14.01,2013-04-04 10:16:00,
2013-04-04 05:24:00,35.6,23.5,29.82,North,0,12.1,12.1,61,0.00,,,0.00,VWS V14.01,2013-04-04 10:24:00,
2013-04-04 05:26:00,35.6,23.5,29.82,NNW,338,4.7,6.9,61,0.00,,,0.00,VWS V14.01,2013-04-04 10:26:00,
2013-04-04 05:28:00,35.4,22.9,29.82,NNW,338,12.1,12.1,60,0.00,,,0.00,VWS V14.01,2013-04-04 10:28:00,
2013-04-04 05:30:00,35.6,22.7,29.82,NW,315,8.1,8.1,59,0.00,,,0.00,VWS V14.01,2013-04-04 10:30:00,
2013-04-04 05:32:00,35.4,22.5,29.82,SSE,158,12.1,12.1,59,0.00,,,0.00,VWS V14.01,2013-04-04 10:32:00,
2013-04-04 05:34:00,35.4,22.5,29.82,NNW,338,3.4,6.9,59,0.00,,,0.00,VWS V14.01,2013-04-04 10:34:00,
2013-04-04 05:38:00,35.4,22.1,29.82,WNW,292,8.7,8.7,58,0.00,,,0.00,VWS V14.01,2013-04-04 10:38:00,
2013-04-04 05:40:00,35.4,22.1,29.82,WSW,248,4.7,6.9,58,0.00,,,0.00,VWS V14.01,2013-04-04 10:40:00,
2013-04-04 05:42:00,35.2,21.5,29.82,NNW,338,4.7,6.9,57,0.00,,,0.00,VWS V14.01,2013-04-04 10:42:00,
2013-04-04 05:44:00,35.2,21.5,29.82,North,0,6.7,6.9,57,0.00,,,0.00,VWS V14.01,2013-04-04 10:44:00,
2013-04-04 05:46:00,35.1,21.4,29.82,North,0,2.7,6.9,57,0.00,,,0.00,VWS V14.01,2013-04-04 10:46:00,
2013-04-04 05:54:00,35.1,21.0,29.82,NNW,338,8.7,8.7,56,0.00,,,0.00,VWS V14.01,2013-04-04 10:54:00,
2013-04-04 05:56:00,35.1,21.4,29.85,NNE,22,12.8,12.8,57,0.00,,,0.00,VWS V14.01,2013-04-04 10:56:00,
2013-04-04 05:58:00,34.9,20.8,29.85,NW,315,8.1,8.1,56,0.00,,,0.00,VWS V14.01,2013-04-04 10:58:00,
2013-04-04 06:00:00,34.9,20.8,29.85,NNE,22,10.1,10.1,56,0.00,,,0.00,VWS V14.01,2013-04-04 11:00:00,
2013-04-04 06:02:00,34.9,20.8,29.85,NE,45,4.0,6.9,56,0.00,,,0.00,VWS V14.01,2013-04-04 11:02:00,
2013-04-04 06:10:00,34.5,20.5,29.85,NNE,22,6.0,6.0,56,0.00,,,0.00,VWS V14.01,2013-04-04 11:10:00,
2013-04-04 06:12:00,34.5,20.5,29.85,North,0,3.4,4.3,56,0.00,,,0.00,VWS V14.01,2013-04-04 11:12:00,
2013-04-04 06:20:00,34.3,19.9,29.85,NNW,338,10.7,10.7,55,0.00,,,0.00,VWS V14.01,2013-04-04 11:20:00,
2013-04-04 06:22:00,34.3,19.9,29.85,NNW,338,4.7,4.7,55,0.00,,,0.00,VWS V14.01,2013-04-04 11:22:00,
2013-04-04 06:24:00,34.3,19.9,29.85,NW,315,10.7,10.7,55,0.00,,,0.00,VWS V14.01,2013-04-04 11:24:00,
2013-04-04 06:26:00,34.3,19.9,29.88,NNE,22,6.0,6.0,55,0.00,,,0.00,VWS V14.01,2013-04-04 11:26:00,
2013-04-04 06:28:00,34.3,19.9,29.88,NW,315,7.4,7.4,55,0.00,,,0.00,VWS V14.01,2013-04-04 11:28:00,
2013-04-04 06:30:00,34.2,19.7,29.88,NNE,22,6.0,6.0,55,0.00,,,0.00,VWS V14.01,2013-04-04 11:30:00,
2013-04-04 06:32:00,34.2,19.7,29.88,West,270,8.1,8.1,55,0.00,,,0.00,VWS V14.01,2013-04-04 11:32:00,
2013-04-04 06:34:00,34.2,19.7,29.88,NNE,22,7.4,7.4,55,0.00,,,0.00,VWS V14.01,2013-04-04 11:34:00,
2013-04-04 06:36:00,34.2,19.7,29.88,NNW,338,8.1,8.1,55,0.00,,,0.00,VWS V14.01,2013-04-04 11:36:00,
2013-04-04 06:38:00,34.2,19.7,29.88,NNW,338,6.0,6.0,55,0.00,,,0.00,VWS V14.01,2013-04-04 11:38:00,
2013-04-04 06:40:00,34.3,19.9,29.88,NE,45,18.1,18.1,55,0.00,,,0.00,VWS V14.01,2013-04-04 11:40:00,
2013-04-04 06:42:00,34.3,19.9,29.88,NW,315,7.4,7.4,55,0.00,,,0.00,VWS V14.01,2013-04-04 11:42:00,
2013-04-04 06:44:00,34.3,19.9,29.88,NNE,22,10.7,10.7,55,0.00,,,0.00,VWS V14.01,2013-04-04 11:44:00,
2013-04-04 06:46:00,34.3,19.9,29.88,NNW,338,3.4,6.0,55,0.00,,,0.00,VWS V14.01,2013-04-04 11:46:00,
2013-04-04 06:48:00,34.3,19.4,29.88,SW,225,4.7,6.0,54,0.00,,,0.00,VWS V14.01,2013-04-04 11:48:00,
2013-04-04 06:50:00,34.3,19.4,29.88,WNW,292,4.7,6.0,54,0.00,,,0.00,VWS V14.01,2013-04-04 11:50:00,
2013-04-04 06:52:00,34.5,19.6,29.88,WSW,248,4.0,6.0,54,0.00,,,0.00,VWS V14.01,2013-04-04 11:52:00,
2013-04-04 06:54:00,34.7,19.8,29.88,SSE,158,0.0,6.0,54,0.00,,,0.00,VWS V14.01,2013-04-04 11:54:00,
2013-04-04 06:56:00,34.9,19.9,29.88,NW,315,4.0,6.0,54,0.00,,,0.00,VWS V14.01,2013-04-04 11:56:00,
2013-04-04 06:58:00,35.1,20.1,29.88,North,0,6.0,6.0,54,0.00,,,0.00,VWS V14.01,2013-04-04 11:58:00,
2013-04-04 07:00:00,35.4,20.4,29.88,NNW,338,10.7,10.7,54,0.00,,,0.00,VWS V14.01,2013-04-04 12:00:00,
2013-04-04 07:02:00,35.6,20.2,29.88,WNW,292,4.0,6.0,53,0.00,,,0.00,VWS V14.01,2013-04-04 12:02:00,
2013-04-04 07:04:00,36.0,20.5,29.88,NNW,338,6.0,6.0,53,0.00,,,0.00,VWS V14.01,2013-04-04 12:04:00,
2013-04-04 07:06:00,36.3,19.9,29.88,NNW,338,8.1,8.1,51,0.00,,,0.00,VWS V14.01,2013-04-04 12:06:00,
2013-04-04 07:08:00,36.7,19.8,29.88,NW,315,12.8,12.8,50,0.00,,,0.00,VWS V14.01,2013-04-04 12:08:00,
2013-04-04 07:10:00,36.7,19.3,29.88,North,0,3.4,6.0,49,0.00,,,0.00,VWS V14.01,2013-04-04 12:10:00,
2013-04-04 07:12:00,36.9,19.5,29.88,NW,315,4.7,6.0,49,0.00,,,0.00,VWS V14.01,2013-04-04 12:12:00,
2013-04-04 07:14:00,36.9,18.0,29.88,NW,315,10.7,10.7,46,0.00,,,0.00,VWS V14.01,2013-04-04 12:14:00,
2013-04-04 07:16:00,36.9,18.0,29.88,NW,315,4.7,6.0,46,0.00,,,0.00,VWS V14.01,2013-04-04 12:16:00,
2013-04-04 07:18:00,37.0,18.2,29.88,WNW,292,4.0,6.0,46,0.00,,,0.00,VWS V14.01,2013-04-04 12:18:00,
2013-04-04 07:20:00,37.0,18.2,29.88,WNW,292,0.0,4.3,46,0.00,,,0.00,VWS V14.01,2013-04-04 12:20:00,
2013-04-04 07:32:00,37.9,16.9,29.85,NW,315,10.7,10.7,42,0.00,,,0.00,VWS V14.01,2013-04-04 12:32:00,
2013-04-04 07:34:00,37.9,16.9,29.85,WNW,292,10.7,10.7,42,0.00,,,0.00,VWS V14.01,2013-04-04 12:34:00,
2013-04-04 07:36:00,37.9,16.9,29.85,NNE,22,6.0,6.0,42,0.00,,,0.00,VWS V14.01,2013-04-04 12:36:00,
2013-04-04 07:38:00,38.1,17.1,29.85,NW,315,12.1,12.1,42,0.00,,,0.00,VWS V14.01,2013-04-04 12:38:00,
2013-04-04 07:40:00,38.1,17.1,29.88,NNE,22,8.7,8.7,42,0.00,,,0.00,VWS V14.01,2013-04-04 12:40:00,
2013-04-04 07:42:00,38.5,17.4,29.88,NW,315,16.8,16.8,42,0.00,,,0.00,VWS V14.01,2013-04-04 12:42:00,
2013-04-04 07:44:00,38.5,16.8,29.88,North,0,7.4,7.4,41,0.00,,,0.00,VWS V14.01,2013-04-04 12:44:00,
2013-04-04 07:46:00,38.8,17.2,29.88,NNE,22,11.4,11.4,41,0.00,,,0.00,VWS V14.01,2013-04-04 12:46:00,
2013-04-04 07:48:00,38.7,17.0,29.88,NNW,338,9.4,9.4,41,0.00,,,0.00,VWS V14.01,2013-04-04 12:48:00,
2013-04-04 07:50:00,38.7,17.0,29.88,NNW,338,8.1,8.1,41,0.00,,,0.00,VWS V14.01,2013-04-04 12:50:00,
2013-04-04 07:52:00,38.8,17.2,29.88,NW,315,7.4,7.4,41,0.00,,,0.00,VWS V14.01,2013-04-04 12:52:00,
2013-04-04 07:54:00,38.8,16.6,29.88,East,90,10.1,10.1,40,0.00,,,0.00,VWS V14.01,2013-04-04 12:54:00,
2013-04-04 07:56:00,39.0,16.8,29.88,NNE,22,11.4,11.4,40,0.00,,,0.00,VWS V14.01,2013-04-04 12:56:00,
2013-04-04 07:58:00,39.0,16.8,29.88,NNW,338,10.1,10.1,40,0.00,,,0.00,VWS V14.01,2013-04-04 12:58:00,
2013-04-04 08:00:00,39.2,16.9,29.88,NNE,22,6.0,6.0,40,0.00,,,0.00,VWS V14.01,2013-04-04 13:00:00,
2013-04-04 08:02:00,39.2,16.9,29.88,NNW,338,16.8,16.8,40,0.00,,,0.00,VWS V14.01,2013-04-04 13:02:00,
2013-04-04 08:04:00,39.2,16.9,29.88,WNW,292,8.7,8.7,40,0.00,,,0.00,VWS V14.01,2013-04-04 13:04:00,
2013-04-04 08:06:00,39.6,16.7,29.88,North,0,10.1,10.1,39,0.00,,,0.00,VWS V14.01,2013-04-04 13:06:00,
2013-04-04 08:16:00,38.1,15.4,29.88,WNW,292,10.1,10.1,39,0.00,,,0.00,VWS V14.01,2013-04-04 13:16:00,
2013-04-04 08:18:00,37.9,15.8,29.88,NNW,338,8.1,8.1,40,0.00,,,0.00,VWS V14.01,2013-04-04 13:18:00,
2013-04-04 08:20:00,37.8,15.6,29.88,NNW,338,19.5,19.5,40,0.00,,,0.00,VWS V14.01,2013-04-04 13:20:00,
2013-04-04 08:22:00,37.4,15.3,29.88,SSW,202,10.1,10.1,40,0.00,,,0.00,VWS V14.01,2013-04-04 13:22:00,
2013-04-04 08:24:00,37.4,15.3,29.88,North,0,12.8,12.8,40,0.00,,,0.00,VWS V14.01,2013-04-04 13:24:00,
2013-04-04 08:26:00,37.4,15.3,29.88,NW,315,12.8,12.8,40,0.00,,,0.00,VWS V14.01,2013-04-04 13:26:00,
2013-04-04 08:28:00,37.6,15.5,29.88,NNW,338,10.1,10.1,40,0.00,,,0.00,VWS V14.01,2013-04-04 13:28:00,
2013-04-04 08:30:00,37.8,15.6,29.88,NNW,338,8.7,8.7,40,0.00,,,0.00,VWS V14.01,2013-04-04 13:30:00,
2013-04-04 08:32:00,37.9,15.8,29.88,WNW,292,9.4,9.4,40,0.00,,,0.00,VWS V14.01,2013-04-04 13:32:00,
2013-04-04 08:42:00,38.5,16.3,29.91,North,0,12.1,12.1,40,0.00,,,0.00,VWS V14.01,2013-04-04 13:42:00,
2013-04-04 08:44:00,38.7,15.9,29.91,WNW,292,20.1,20.1,39,0.00,,,0.00,VWS V14.01,2013-04-04 13:44:00,
2013-04-04 08:46:00,38.7,16.4,29.91,NNE,22,8.1,8.1,40,0.00,,,0.00,VWS V14.01,2013-04-04 13:46:00,
2013-04-04 09:00:00,39.2,16.3,29.91,NNW,338,6.0,6.7,39,0.00,,,0.00,VWS V14.01,2013-04-04 14:00:00,
2013-04-04 09:02:00,39.6,16.7,29.91,NNE,22,8.7,8.7,39,0.00,,,0.00,VWS V14.01,2013-04-04 14:02:00,
2013-04-04 09:04:00,39.6,16.7,29.91,NE,45,8.1,8.1,39,0.00,,,0.00,VWS V14.01,2013-04-04 14:04:00,
2013-04-04 09:06:00,39.7,16.8,29.91,NW,315,11.4,11.4,39,0.00,,,0.00,VWS V14.01,2013-04-04 14:06:00,
2013-04-04 09:08:00,40.1,17.1,29.91,NNW,338,11.4,11.4,39,0.00,,,0.00,VWS V14.01,2013-04-04 14:08:00,
2013-04-04 09:10:00,40.3,17.3,29.88,NNE,22,8.7,8.7,39,0.00,,,0.00,VWS V14.01,2013-04-04 14:10:00,
2013-04-04 09:12:00,40.6,17.6,29.88,NW,315,7.4,7.4,39,0.00,,,0.00,VWS V14.01,2013-04-04 14:12:00,
2013-04-04 09:14:00,40.8,17.8,29.88,NW,315,7.4,7.4,39,0.00,,,0.00,VWS V14.01,2013-04-04 14:14:00,
2013-04-04 09:16:00,41.0,17.4,29.88,North,0,7.4,7.4,38,0.00,,,0.00,VWS V14.01,2013-04-04 14:16:00,
2013-04-04 09:18:00,41.4,17.7,29.88,North,0,8.1,8.1,38,0.00,,,0.00,VWS V14.01,2013-04-04 14:18:00,
2013-04-04 09:20:00,41.7,18.0,29.88,NE,45,6.7,6.7,38,0.00,,,0.00,VWS V14.01,2013-04-04 14:20:00,
2013-04-04 09:22:00,42.3,18.5,29.88,NNE,22,11.4,11.4,38,0.00,,,0.00,VWS V14.01,2013-04-04 14:22:00,
2013-04-04 09:24:00,42.4,18.6,29.88,North,0,8.1,8.1,38,0.00,,,0.00,VWS V14.01,2013-04-04 14:24:00,
2013-04-04 09:26:00,42.6,18.8,29.88,East,90,14.8,14.8,38,0.00,,,0.00,VWS V14.01,2013-04-04 14:26:00,
2013-04-04 09:28:00,42.6,18.2,29.88,NNE,22,10.1,10.1,37,0.00,,,0.00,VWS V14.01,2013-04-04 14:28:00,
2013-04-04 09:30:00,42.6,17.5,29.88,ENE,68,8.7,8.7,36,0.00,,,0.00,VWS V14.01,2013-04-04 14:30:00,
2013-04-04 09:32:00,43.0,17.9,29.88,NNW,338,7.4,7.4,36,0.00,,,0.00,VWS V14.01,2013-04-04 14:32:00,
2013-04-04 09:34:00,42.8,17.7,29.88,NNW,338,4.7,5.4,36,0.00,,,0.00,VWS V14.01,2013-04-04 14:34:00,
2013-04-04 09:36:00,43.0,17.9,29.88,NNE,22,8.1,8.1,36,0.00,,,0.00,VWS V14.01,2013-04-04 14:36:00,
2013-04-04 09:38:00,43.2,17.4,29.88,NNE,22,10.1,10.1,35,0.00,,,0.00,VWS V14.01,2013-04-04 14:38:00,
2013-04-04 09:40:00,43.9,18.7,29.88,NNE,22,6.7,6.7,36,0.00,,,0.00,VWS V14.01,2013-04-04 14:40:00,
2013-04-04 09:42:00,44.2,18.3,29.88,North,0,8.7,8.7,35,0.00,,,0.00,VWS V14.01,2013-04-04 14:42:00,
2013-04-04 09:44:00,44.4,18.5,29.88,North,0,9.4,9.4,35,0.00,,,0.00,VWS V14.01,2013-04-04 14:44:00,
2013-04-04 09:46:00,44.8,17.5,29.88,NW,315,4.7,5.4,33,0.00,,,0.00,VWS V14.01,2013-04-04 14:46:00,
2013-04-04 09:48:00,45.0,18.3,29.88,NE,45,3.4,3.4,34,0.00,,,0.00,VWS V14.01,2013-04-04 14:48:00,
2013-04-04 09:49:00,45.3,18.6,29.88,North,0,21.5,21.5,34,0.00,,,0.00,VWS V14.01,2013-04-04 14:49:00,
2013-04-04 09:50:00,45.0,16.9,29.88,North,0,8.1,8.1,32,0.00,,,0.00,VWS V14.01,2013-04-04 14:50:00,
2013-04-04 09:51:00,45.1,17.1,29.88,North,0,8.7,8.7,32,0.00,,,0.00,VWS V14.01,2013-04-04 14:51:00,
2013-04-04 09:52:00,45.5,17.4,29.88,North,0,4.7,4.7,32,0.00,,,0.00,VWS V14.01,2013-04-04 14:52:00,
2013-04-04 09:53:00,45.5,17.4,29.88,NW,315,10.7,10.7,32,0.00,,,0.00,VWS V14.01,2013-04-04 14:53:00,
2013-04-04 09:54:00,45.7,17.5,29.88,West,270,9.4,9.4,32,0.00,,,0.00,VWS V14.01,2013-04-04 14:54:00,
2013-04-04 09:55:00,45.9,17.7,29.91,NNW,338,4.7,4.7,32,0.00,,,0.00,VWS V14.01,2013-04-04 14:55:00,
2013-04-04 09:56:00,46.0,17.9,29.91,NNW,338,6.0,6.0,32,0.00,,,0.00,VWS V14.01,2013-04-04 14:56:00,
2013-04-04 09:57:00,46.0,17.9,29.91,NNW,338,8.1,8.1,32,0.00,,,0.00,VWS V14.01,2013-04-04 14:57:00,
2013-04-04 09:58:00,46.0,17.9,29.91,NNW,338,8.1,8.1,32,0.00,,,0.00,VWS V14.01,2013-04-04 14:58:00,
2013-04-04 09:59:00,46.2,18.0,29.91,NNW,338,8.1,8.1,32,0.00,,,0.00,VWS V14.01,2013-04-04 14:59:00,
2013-04-04 10:00:00,46.8,17.7,29.91,WNW,292,12.1,12.1,31,0.00,,,0.00,VWS V14.01,2013-04-04 15:00:00,
2013-04-04 10:01:00,46.8,17.7,29.91,WNW,292,12.1,12.1,31,0.00,,,0.00,VWS V14.01,2013-04-04 15:01:00,
2013-04-04 10:02:00,46.9,17.9,29.91,NW,315,8.7,8.7,31,0.00,,,0.00,VWS V14.01,2013-04-04 15:02:00,
2013-04-04 10:03:00,46.8,17.7,29.91,NW,315,9.4,9.4,31,0.00,,,0.00,VWS V14.01,2013-04-04 15:03:00,
2013-04-04 10:04:00,46.8,17.7,29.91,NE,45,7.4,7.4,31,0.00,,,0.00,VWS V14.01,2013-04-04 15:04:00,
2013-04-04 10:05:00,46.6,17.6,29.91,WNW,292,14.1,14.1,31,0.00,,,0.00,VWS V14.01,2013-04-04 15:05:00,
2013-04-04 10:06:00,46.9,17.9,29.91,NNE,22,7.4,7.4,31,0.00,,,0.00,VWS V14.01,2013-04-04 15:06:00,
2013-04-04 10:07:00,46.9,17.9,29.91,NNW,338,8.7,8.7,31,0.00,,,0.00,VWS V14.01,2013-04-04 15:07:00,
2013-04-04 10:08:00,47.3,18.2,29.91,NW,315,7.4,7.4,31,0.00,,,0.00,VWS V14.01,2013-04-04 15:08:00,
2013-04-04 10:09:00,47.3,17.5,29.91,NE,45,12.8,12.8,30,0.00,,,0.00,VWS V14.01,2013-04-04 15:09:00,
2013-04-04 10:10:00,47.3,17.5,29.91,NE,45,14.8,14.8,30,0.00,,,0.00,VWS V14.01,2013-04-04 15:10:00,
2013-04-04 10:11:00,47.1,17.3,29.91,NNE,22,10.1,10.1,30,0.00,,,0.00,VWS V14.01,2013-04-04 15:11:00,
2013-04-04 10:12:00,47.1,17.3,29.91,NNE,22,11.4,11.4,30,0.00,,,0.00,VWS V14.01,2013-04-04 15:12:00,
2013-04-04 10:13:00,47.1,17.3,29.91,WSW,248,8.7,8.7,30,0.00,,,0.00,VWS V14.01,2013-04-04 15:13:00,
2013-04-04 10:14:00,46.8,16.2,29.91,NNW,338,10.1,10.1,29,0.00,,,0.00,VWS V14.01,2013-04-04 15:14:00,
2013-04-04 10:15:00,46.9,16.4,29.91,SW,225,10.7,10.7,29,0.00,,,0.00,VWS V14.01,2013-04-04 15:15:00,
2013-04-04 10:16:00,46.9,16.4,29.91,SW,225,10.7,10.7,29,0.00,,,0.00,VWS V14.01,2013-04-04 15:16:00,
2013-04-04 10:17:00,46.9,16.4,29.91,WNW,292,9.4,9.4,29,0.00,,,0.00,VWS V14.01,2013-04-04 15:17:00,
2013-04-04 10:18:00,46.9,16.4,29.91,NNW,338,10.7,10.7,29,0.00,,,0.00,VWS V14.01,2013-04-04 15:18:00,
2013-04-04 10:19:00,47.5,16.8,29.91,WNW,292,14.1,14.1,29,0.00,,,0.00,VWS V14.01,2013-04-04 15:19:00,
2013-04-04 10:20:00,47.5,16.8,29.91,NNW,338,17.5,17.5,29,0.00,,,0.00,VWS V14.01,2013-04-04 15:20:00,
2013-04-04 10:21:00,47.7,17.0,29.91,ENE,68,8.7,8.7,29,0.00,,,0.00,VWS V14.01,2013-04-04 15:21:00,
2013-04-04 10:22:00,47.7,17.0,29.91,NW,315,14.8,14.8,29,0.00,,,0.00,VWS V14.01,2013-04-04 15:22:00,
2013-04-04 10:23:00,47.7,17.0,29.91,NE,45,16.8,16.8,29,0.00,,,0.00,VWS V14.01,2013-04-04 15:23:00,
2013-04-04 10:24:00,48.4,17.6,29.91,NE,45,16.8,16.8,29,0.00,,,0.00,VWS V14.01,2013-04-04 15:24:00,
2013-04-04 10:25:00,48.0,17.3,29.91,NE,45,16.8,16.8,29,0.00,,,0.00,VWS V14.01,2013-04-04 15:25:00,
2013-04-04 10:26:00,47.8,17.1,29.91,SSW,202,14.8,14.8,29,0.00,,,0.00,VWS V14.01,2013-04-04 15:26:00,
2013-04-04 10:27:00,47.8,17.1,29.91,NNE,22,10.1,10.1,29,0.00,,,0.00,VWS V14.01,2013-04-04 15:27:00,
2013-04-04 10:28:00,47.8,17.1,29.91,NNE,22,18.1,18.1,29,0.00,,,0.00,VWS V14.01,2013-04-04 15:28:00,
2013-04-04 10:29:00,47.8,17.1,29.91,NNE,22,18.1,18.1,29,0.00,,,0.00,VWS V14.01,2013-04-04 15:29:00,
2013-04-04 10:30:00,48.0,17.3,29.91,NNW,338,10.7,10.7,29,0.00,,,0.00,VWS V14.01,2013-04-04 15:30:00,
2013-04-04 10:31:00,47.8,17.1,29.91,North,0,17.5,17.5,29,0.00,,,0.00,VWS V14.01,2013-04-04 15:31:00,
2013-04-04 10:32:00,47.8,17.1,29.91,North,0,17.5,17.5,29,0.00,,,0.00,VWS V14.01,2013-04-04 15:32:00,
2013-04-04 10:33:00,48.0,17.3,29.91,North,0,17.5,17.5,29,0.00,,,0.00,VWS V14.01,2013-04-04 15:33:00,
2013-04-04 10:34:00,48.2,16.6,29.91,SW,225,9.4,9.4,28,0.00,,,0.00,VWS V14.01,2013-04-04 15:34:00,
2013-04-04 10:35:00,48.4,16.8,29.91,SW,225,9.4,9.4,28,0.00,,,0.00,VWS V14.01,2013-04-04 15:35:00,
2013-04-04 10:36:00,48.6,17.0,29.91,NNW,338,8.7,8.7,28,0.00,,,0.00,VWS V14.01,2013-04-04 15:36:00,
2013-04-04 10:37:00,48.7,17.1,29.91,NNW,338,8.7,8.7,28,0.00,,,0.00,VWS V14.01,2013-04-04 15:37:00,
2013-04-04 10:38:00,48.7,17.1,29.91,NNW,338,8.7,8.7,28,0.00,,,0.00,VWS V14.01,2013-04-04 15:38:00,
2013-04-04 10:39:00,48.6,17.0,29.91,NW,315,10.7,10.7,28,0.00,,,0.00,VWS V14.01,2013-04-04 15:39:00,
2013-04-04 10:40:00,48.6,17.0,29.91,NNW,338,8.1,8.1,28,0.00,,,0.00,VWS V14.01,2013-04-04 15:40:00,
2013-04-04 10:41:00,48.4,16.8,29.91,NNW,338,10.7,10.7,28,0.00,,,0.00,VWS V14.01,2013-04-04 15:41:00,
2013-04-04 10:42:00,48.6,17.0,29.91,NW,315,9.4,9.4,28,0.00,,,0.00,VWS V14.01,2013-04-04 15:42:00,
2013-04-04 10:43:00,48.6,17.0,29.91,NW,315,10.1,10.1,28,0.00,,,0.00,VWS V14.01,2013-04-04 15:43:00,
2013-04-04 10:44:00,48.6,17.0,29.91,WNW,292,11.4,11.4,28,0.00,,,0.00,VWS V14.01,2013-04-04 15:44:00,
2013-04-04 10:45:00,48.6,17.0,29.91,WNW,292,10.7,10.7,28,0.00,,,0.00,VWS V14.01,2013-04-04 15:45:00,
2013-04-04 10:46:00,48.6,17.0,29.91,WNW,292,10.7,10.7,28,0.00,,,0.00,VWS V14.01,2013-04-04 15:46:00,
2013-04-04 10:47:00,48.7,17.1,29.91,NNE,22,7.4,7.4,28,0.00,,,0.00,VWS V14.01,2013-04-04 15:47:00,
2013-04-04 10:48:00,48.7,17.1,29.91,North,0,10.1,10.1,28,0.00,,,0.00,VWS V14.01,2013-04-04 15:48:00,
2013-04-04 10:49:00,48.9,17.3,29.91,North,0,10.1,10.1,28,0.00,,,0.00,VWS V14.01,2013-04-04 15:49:00,
2013-04-04 10:50:00,49.1,17.4,29.91,NNW,338,10.1,10.1,28,0.00,,,0.00,VWS V14.01,2013-04-04 15:50:00,
2013-04-04 10:51:00,49.1,17.4,29.91,NNW,338,12.8,12.8,28,0.00,,,0.00,VWS V14.01,2013-04-04 15:51:00,
2013-04-04 10:52:00,48.9,17.3,29.91,NW,315,12.1,12.1,28,0.00,,,0.00,VWS V14.01,2013-04-04 15:52:00,
2013-04-04 10:53:00,49.1,17.4,29.91,NNE,22,7.4,7.4,28,0.00,,,0.00,VWS V14.01,2013-04-04 15:53:00,
2013-04-04 10:54:00,49.5,17.7,29.91,NW,315,8.7,8.7,28,0.00,,,0.00,VWS V14.01,2013-04-04 15:54:00,
2013-04-04 10:55:00,49.6,17.9,29.91,NW,315,8.7,8.7,28,0.00,,,0.00,VWS V14.01,2013-04-04 15:55:00,
2013-04-04 10:56:00,49.5,17.7,29.91,NNW,338,7.4,7.4,28,0.00,,,0.00,VWS V14.01,2013-04-04 15:56:00,
2013-04-04 10:57:00,49.1,17.4,29.91,NNE,22,18.1,18.1,28,0.00,,,0.00,VWS V14.01,2013-04-04 15:57:00,
2013-04-04 10:58:00,49.3,17.6,29.91,NE,45,10.7,10.7,28,0.00,,,0.00,VWS V14.01,2013-04-04 15:58:00,
2013-04-04 10:59:00,49.5,17.7,29.91,NW,315,9.4,9.4,28,0.00,,,0.00,VWS V14.01,2013-04-04 15:59:00,
2013-04-04 11:00:00,49.8,18.0,29.91,NNE,22,7.4,7.4,28,0.00,,,0.00,VWS V14.01,2013-04-04 16:00:00,
2013-04-04 11:01:00,49.8,18.0,29.91,NW,315,7.4,7.4,28,0.00,,,0.00,VWS V14.01,2013-04-04 16:01:00,
2013-04-04 11:02:00,50.0,17.4,29.91,NNE,22,14.8,14.8,27,0.00,,,0.00,VWS V14.01,2013-04-04 16:02:00,
2013-04-04 11:03:00,49.6,17.0,29.91,NW,315,17.5,17.5,27,0.00,,,0.00,VWS V14.01,2013-04-04 16:03:00,
2013-04-04 11:04:00,49.8,17.2,29.91,WNW,292,14.1,14.1,27,0.00,,,0.00,VWS V14.01,2013-04-04 16:04:00,
2013-04-04 11:05:00,49.8,17.2,29.91,NW,315,12.1,12.1,27,0.00,,,0.00,VWS V14.01,2013-04-04 16:05:00,
2013-04-04 11:06:00,49.8,18.0,29.91,NW,315,8.1,8.1,28,0.00,,,0.00,VWS V14.01,2013-04-04 16:06:00,
2013-04-04 11:07:00,49.6,17.0,29.91,NE,45,12.8,12.8,27,0.00,,,0.00,VWS V14.01,2013-04-04 16:07:00,
2013-04-04 11:08:00,50.0,17.4,29.91,NE,45,4.7,4.7,27,0.00,,,0.00,VWS V14.01,2013-04-04 16:08:00,
2013-04-04 11:09:00,50.5,17.8,29.91,NNW,338,8.7,8.7,27,0.00,,,0.00,VWS V14.01,2013-04-04 16:09:00,
2013-04-04 11:10:00,50.7,18.0,29.91,NNW,338,9.4,9.4,27,0.00,,,0.00,VWS V14.01,2013-04-04 16:10:00,
2013-04-04 11:11:00,50.5,17.8,29.91,NNE,22,11.4,11.4,27,0.00,,,0.00,VWS V14.01,2013-04-04 16:11:00,
2013-04-04 11:12:00,51.1,18.3,29.91,NNW,338,8.1,8.1,27,0.00,,,0.00,VWS V14.01,2013-04-04 16:12:00,
2013-04-04 11:13:00,51.1,18.3,29.91,NNW,338,14.8,14.8,27,0.00,,,0.00,VWS V14.01,2013-04-04 16:13:00,
2013-04-04 11:14:00,50.7,18.0,29.91,WNW,292,12.8,12.8,27,0.00,,,0.00,VWS V14.01,2013-04-04 16:14:00,
2013-04-04 11:15:00,50.5,17.8,29.91,NNE,22,10.7,10.7,27,0.00,,,0.00,VWS V14.01,2013-04-04 16:15:00,
2013-04-04 11:16:00,50.4,17.7,29.91,NNE,22,12.8,12.8,27,0.00,,,0.00,VWS V14.01,2013-04-04 16:16:00,
2013-04-04 11:17:00,50.0,17.4,29.91,WSW,248,10.7,10.7,27,0.00,,,0.00,VWS V14.01,2013-04-04 16:17:00,
2013-04-04 11:18:00,50.2,17.5,29.91,NNE,22,6.0,6.0,27,0.00,,,0.00,VWS V14.01,2013-04-04 16:18:00,
2013-04-04 11:19:00,50.7,18.0,29.91,SE,135,4.7,4.7,27,0.00,,,0.00,VWS V14.01,2013-04-04 16:19:00,
2013-04-04 11:20:00,51.3,18.4,29.91,ENE,68,4.7,4.7,27,0.00,,,0.00,VWS V14.01,2013-04-04 16:20:00,
2013-04-04 11:21:00,51.6,18.8,29.91,NE,45,6.0,6.0,27,0.00,,,0.00,VWS V14.01,2013-04-04 16:21:00,
2013-04-04 11:22:00,51.4,18.6,29.91,North,0,10.7,10.7,27,0.00,,,0.00,VWS V14.01,2013-04-04 16:22:00,
2013-04-04 11:23:00,51.1,18.3,29.91,NNW,338,16.1,16.1,27,0.00,,,0.00,VWS V14.01,2013-04-04 16:23:00,
2013-04-04 11:24:00,51.1,18.3,29.91,NE,45,21.5,21.5,27,0.00,,,0.00,VWS V14.01,2013-04-04 16:24:00,
2013-04-04 11:25:00,51.1,18.3,29.91,NNE,22,12.1,12.1,27,0.00,,,0.00,VWS V14.01,2013-04-04 16:25:00,
2013-04-04 11:26:00,50.7,18.0,29.91,NNE,22,12.1,12.1,27,0.00,,,0.00,VWS V14.01,2013-04-04 16:26:00,
2013-04-04 11:27:00,51.1,18.3,29.91,NE,45,10.7,10.7,27,0.00,,,0.00,VWS V14.01,2013-04-04 16:27:00,
2013-04-04 11:28:00,51.1,18.3,29.91,NE,45,10.7,10.7,27,0.00,,,0.00,VWS V14.01,2013-04-04 16:28:00,
2013-04-04 11:29:00,51.4,18.6,29.91,NE,45,10.7,10.7,27,0.00,,,0.00,VWS V14.01,2013-04-04 16:29:00,
2013-04-04 11:30:00,51.6,18.8,29.91,WNW,292,16.8,16.8,27,0.00,,,0.00,VWS V14.01,2013-04-04 16:30:00,
2013-04-04 11:31:00,51.4,18.6,29.91,NNW,338,16.8,16.8,27,0.00,,,0.00,VWS V14.01,2013-04-04 16:31:00,
2013-04-04 11:32:00,51.8,18.0,29.91,NNE,22,6.0,6.0,26,0.00,,,0.00,VWS V14.01,2013-04-04 16:32:00,
2013-04-04 11:33:00,51.8,18.0,29.91,WNW,292,10.1,10.1,26,0.00,,,0.00,VWS V14.01,2013-04-04 16:33:00,
2013-04-04 11:34:00,51.8,18.0,29.91,NW,315,9.4,9.4,26,0.00,,,0.00,VWS V14.01,2013-04-04 16:34:00,
2013-04-04 11:35:00,52.0,18.2,29.91,NNW,338,8.7,8.7,26,0.00,,,0.00,VWS V14.01,2013-04-04 16:35:00,
2013-04-04 11:36:00,51.8,18.0,29.91,NNE,22,16.8,16.8,26,0.00,,,0.00,VWS V14.01,2013-04-04 16:36:00,
2013-04-04 11:37:00,51.6,17.9,29.91,ENE,68,7.4,7.4,26,0.00,,,0.00,VWS V14.01,2013-04-04 16:37:00,
2013-04-04 11:38:00,52.0,18.2,29.91,NNW,338,12.8,12.8,26,0.00,,,0.00,VWS V14.01,2013-04-04 16:38:00,
2013-04-04 11:39:00,51.8,18.0,29.91,NE,45,6.0,6.0,26,0.00,,,0.00,VWS V14.01,2013-04-04 16:39:00,
2013-04-04 11:40:00,51.6,17.9,29.91,NW,315,21.5,21.5,26,0.00,,,0.00,VWS V14.01,2013-04-04 16:40:00,
2013-04-04 11:41:00,51.3,17.6,29.91,NNE,22,18.8,18.8,26,0.00,,,0.00,VWS V14.01,2013-04-04 16:41:00,
2013-04-04 11:42:00,51.4,17.7,29.91,WNW,292,10.1,10.1,26,0.00,,,0.00,VWS V14.01,2013-04-04 16:42:00,
2013-04-04 11:43:00,51.6,18.8,29.91,North,0,7.4,7.4,27,0.00,,,0.00,VWS V14.01,2013-04-04 16:43:00,
2013-04-04 11:44:00,52.3,18.5,29.91,NW,315,2.7,3.4,26,0.00,,,0.00,VWS V14.01,2013-04-04 16:44:00,
2013-04-04 11:45:00,51.6,17.9,29.91,North,0,10.7,10.7,26,0.00,,,0.00,VWS V14.01,2013-04-04 16:45:00,
2013-04-04 11:46:00,51.6,17.9,29.91,North,0,10.7,10.7,26,0.00,,,0.00,VWS V14.01,2013-04-04 16:46:00,
2013-04-04 11:47:00,51.8,18.0,29.91,South,180,8.1,8.1,26,0.00,,,0.00,VWS V14.01,2013-04-04 16:47:00,
2013-04-04 11:48:00,51.8,18.0,29.91,NNW,338,12.8,12.8,26,0.00,,,0.00,VWS V14.01,2013-04-04 16:48:00,
2013-04-04 11:49:00,52.3,18.5,29.91,NE,45,10.1,10.1,26,0.00,,,0.00,VWS V14.01,2013-04-04 16:49:00,
2013-04-04 11:50:00,52.5,18.6,29.91,NNE,22,10.1,10.1,26,0.00,,,0.00,VWS V14.01,2013-04-04 16:50:00,
2013-04-04 11:51:00,52.9,19.0,29.91,NW,315,3.4,3.4,26,0.00,,,0.00,VWS V14.01,2013-04-04 16:51:00,
2013-04-04 11:52:00,53.1,19.1,29.91,NW,315,10.7,10.7,26,0.00,,,0.00,VWS V14.01,2013-04-04 16:52:00,
2013-04-04 11:53:00,53.2,19.3,29.91,NW,315,6.0,6.0,26,0.00,,,0.00,VWS V14.01,2013-04-04 16:53:00,
2013-04-04 11:54:00,53.2,19.3,29.91,West,270,8.7,8.7,26,0.00,,,0.00,VWS V14.01,2013-04-04 16:54:00,
2013-04-04 11:55:00,52.7,18.8,29.91,NNW,338,9.4,9.4,26,0.00,,,0.00,VWS V14.01,2013-04-04 16:55:00,
2013-04-04 11:56:00,52.3,18.5,29.91,NNW,338,7.4,7.4,26,0.00,,,0.00,VWS V14.01,2013-04-04 16:56:00,
2013-04-04 11:57:00,52.2,18.3,29.91,NNW,338,22.8,22.8,26,0.00,,,0.00,VWS V14.01,2013-04-04 16:57:00,
2013-04-04 11:58:00,52.2,18.3,29.91,NNW,338,10.7,10.7,26,0.00,,,0.00,VWS V14.01,2013-04-04 16:58:00,
2013-04-04 11:59:00,51.6,17.9,29.91,NNW,338,6.0,6.0,26,0.00,,,0.00,VWS V14.01,2013-04-04 16:59:00,
2013-04-04 12:00:00,51.8,18.0,29.91,ENE,68,6.0,6.0,26,0.00,,,0.00,VWS V14.01,2013-04-04 17:00:00,
2013-04-04 12:01:00,52.3,18.5,29.91,NE,45,10.1,10.1,26,0.00,,,0.00,VWS V14.01,2013-04-04 17:01:00,
2013-04-04 12:02:00,52.3,18.5,29.91,SW,225,12.1,12.1,26,0.00,,,0.00,VWS V14.01,2013-04-04 17:02:00,
2013-04-04 12:03:00,52.5,18.6,29.91,NNW,338,10.1,10.1,26,0.00,,,0.00,VWS V14.01,2013-04-04 17:03:00,
2013-04-04 12:04:00,52.7,18.8,29.91,NNW,338,10.7,10.7,26,0.00,,,0.00,VWS V14.01,2013-04-04 17:04:00,
2013-04-04 12:05:00,52.7,18.8,29.91,NW,315,10.7,10.7,26,0.00,,,0.00,VWS V14.01,2013-04-04 17:05:00,
2013-04-04 12:06:00,52.7,18.8,29.91,NNW,338,14.8,14.8,26,0.00,,,0.00,VWS V14.01,2013-04-04 17:06:00,
2013-04-04 12:07:00,52.9,19.0,29.91,NW,315,9.4,859.5,26,0.00,,,0.00,VWS V14.01,2013-04-04 17:07:00,
2013-04-04 12:08:00,52.7,18.8,29.91,WNW,292,16.8,859.5,26,0.00,,,0.00,VWS V14.01,2013-04-04 17:08:00,
2013-04-04 12:09:00,52.3,18.5,29.91,North,0,10.7,10.7,26,0.00,,,0.00,VWS V14.01,2013-04-04 17:09:00,
2013-04-04 12:10:00,52.3,18.5,29.91,NNE,22,12.8,12.8,26,0.00,,,0.00,VWS V14.01,2013-04-04 17:10:00,
2013-04-04 12:11:00,52.5,18.6,29.91,North,0,10.7,10.7,26,0.00,,,0.00,VWS V14.01,2013-04-04 17:11:00,
2013-04-04 12:12:00,52.2,18.3,29.91,NNW,338,16.1,16.1,26,0.00,,,0.00,VWS V14.01,2013-04-04 17:12:00,
2013-04-04 12:13:00,52.2,18.3,29.91,NNE,22,16.1,16.1,26,0.00,,,0.00,VWS V14.01,2013-04-04 17:13:00,
2013-04-04 12:14:00,52.2,18.3,29.91,North,0,4.0,5.4,26,0.00,,,0.00,VWS V14.01,2013-04-04 17:14:00,
2013-04-04 12:15:00,52.5,18.6,29.91,NW,315,11.4,11.4,26,0.00,,,0.00,VWS V14.01,2013-04-04 17:15:00,
2013-04-04 12:16:00,52.5,18.6,29.91,NNW,338,10.7,10.7,26,0.00,,,0.00,VWS V14.01,2013-04-04 17:16:00,
2013-04-04 12:17:00,51.8,18.0,29.91,NNW,338,12.1,12.1,26,0.00,,,0.00,VWS V14.01,2013-04-04 17:17:00,
2013-04-04 12:18:00,52.0,18.2,29.91,NNE,22,11.4,11.4,26,0.00,,,0.00,VWS V14.01,2013-04-04 17:18:00,
2013-04-04 12:19:00,51.8,18.0,29.91,NW,315,18.8,18.8,26,0.00,,,0.00,VWS V14.01,2013-04-04 17:19:00,
2013-04-04 12:20:00,52.2,18.3,29.91,NNW,338,11.4,11.4,26,0.00,,,0.00,VWS V14.01,2013-04-04 17:20:00,
2013-04-04 12:21:00,52.5,18.6,29.91,NW,315,4.7,4.7,26,0.00,,,0.00,VWS V14.01,2013-04-04 17:21:00,
2013-04-04 12:22:00,52.5,18.6,29.91,North,0,11.4,11.4,26,0.00,,,0.00,VWS V14.01,2013-04-04 17:22:00,
2013-04-04 12:23:00,52.3,18.5,29.91,East,90,10.7,10.7,26,0.00,,,0.00,VWS V14.01,2013-04-04 17:23:00,
2013-04-04 12:24:00,52.3,18.5,29.91,NNW,338,7.4,7.4,26,0.00,,,0.00,VWS V14.01,2013-04-04 17:24:00,
2013-04-04 12:25:00,53.1,19.1,29.91,NW,315,8.1,8.1,26,0.00,,,0.00,VWS V14.01,2013-04-04 17:25:00,
2013-04-04 12:26:00,53.2,19.3,29.91,NNW,338,8.7,8.7,26,0.00,,,0.00,VWS V14.01,2013-04-04 17:26:00,
2013-04-04 12:27:00,52.9,19.0,29.91,WNW,292,16.8,16.8,26,0.00,,,0.00,VWS V14.01,2013-04-04 17:27:00,
2013-04-04 12:28:00,53.1,19.1,29.91,SSW,202,12.8,12.8,26,0.00,,,0.00,VWS V14.01,2013-04-04 17:28:00,
2013-04-04 12:29:00,52.7,18.8,29.91,NNW,338,10.7,10.7,26,0.00,,,0.00,VWS V14.01,2013-04-04 17:29:00,
2013-04-04 12:30:00,52.7,18.8,29.91,NNW,338,11.4,11.4,26,0.00,,,0.00,VWS V14.01,2013-04-04 17:30:00,
2013-04-04 12:31:00,52.7,18.8,29.91,NNW,338,16.1,16.1,26,0.00,,,0.00,VWS V14.01,2013-04-04 17:31:00,
2013-04-04 12:32:00,52.5,18.6,29.91,NE,45,16.8,16.8,26,0.00,,,0.00,VWS V14.01,2013-04-04 17:32:00,
2013-04-04 12:33:00,52.0,18.2,29.91,NNW,338,11.4,11.4,26,0.00,,,0.00,VWS V14.01,2013-04-04 17:33:00,
2013-04-04 12:34:00,51.6,17.9,29.91,North,0,12.8,12.8,26,0.00,,,0.00,VWS V14.01,2013-04-04 17:34:00,
2013-04-04 12:35:00,52.0,18.2,29.91,NNE,22,19.5,19.5,26,0.00,,,0.00,VWS V14.01,2013-04-04 17:35:00,
2013-04-04 12:36:00,51.8,18.0,29.91,NW,315,22.8,22.8,26,0.00,,,0.00,VWS V14.01,2013-04-04 17:36:00,
2013-04-04 12:37:00,51.8,18.0,29.91,NW,315,12.1,12.1,26,0.00,,,0.00,VWS V14.01,2013-04-04 17:37:00,
2013-04-04 12:38:00,52.0,18.2,29.91,NNE,22,18.1,18.1,26,0.00,,,0.00,VWS V14.01,2013-04-04 17:38:00,
2013-04-04 12:39:00,52.2,18.3,29.91,NNE,22,12.1,12.1,26,0.00,,,0.00,VWS V14.01,2013-04-04 17:39:00,
2013-04-04 12:40:00,52.5,18.6,29.91,NW,315,8.7,8.7,26,0.00,,,0.00,VWS V14.01,2013-04-04 17:40:00,
2013-04-04 12:41:00,52.9,19.0,29.91,WSW,248,7.4,7.4,26,0.00,,,0.00,VWS V14.01,2013-04-04 17:41:00,
2013-04-04 12:42:00,52.9,19.0,29.91,NNW,338,9.4,9.4,26,0.00,,,0.00,VWS V14.01,2013-04-04 17:42:00,
2013-04-04 12:43:00,53.2,19.3,29.91,East,90,9.4,9.4,26,0.00,,,0.00,VWS V14.01,2013-04-04 17:43:00,
2013-04-04 12:44:00,53.2,19.3,29.91,North,0,8.1,8.1,26,0.00,,,0.00,VWS V14.01,2013-04-04 17:44:00,
2013-04-04 12:45:00,52.5,18.6,29.91,NNW,338,19.5,19.5,26,0.00,,,0.00,VWS V14.01,2013-04-04 17:45:00,
2013-04-04 12:46:00,52.3,18.5,29.91,NW,315,11.4,11.4,26,0.00,,,0.00,VWS V14.01,2013-04-04 17:46:00,
2013-04-04 12:47:00,52.9,19.0,29.91,NNE,22,11.4,11.4,26,0.00,,,0.00,VWS V14.01,2013-04-04 17:47:00,
2013-04-04 12:48:00,53.1,19.1,29.91,NNW,338,10.7,10.7,26,0.00,,,0.00,VWS V14.01,2013-04-04 17:48:00,
2013-04-04 12:49:00,53.1,19.1,29.91,SSW,202,22.8,22.8,26,0.00,,,0.00,VWS V14.01,2013-04-04 17:49:00,
2013-04-04 12:50:00,53.1,19.1,29.91,SSW,202,12.8,12.8,26,0.00,,,0.00,VWS V14.01,2013-04-04 17:50:00,
2013-04-04 12:51:00,52.9,19.0,29.91,NW,315,18.1,18.1,26,0.00,,,0.00,VWS V14.01,2013-04-04 17:51:00,
2013-04-04 12:52:00,53.1,19.1,29.91,NW,315,18.1,18.1,26,0.00,,,0.00,VWS V14.01,2013-04-04 17:52:00,
2013-04-04 12:53:00,53.4,19.4,29.91,South,180,16.1,16.1,26,0.00,,,0.00,VWS V14.01,2013-04-04 17:53:00,
2013-04-04 12:54:00,53.1,19.1,29.91,NW,315,18.1,18.1,26,0.00,,,0.00,VWS V14.01,2013-04-04 17:54:00,
2013-04-04 12:55:00,52.2,18.3,29.91,NNW,338,16.1,16.1,26,0.00,,,0.00,VWS V14.01,2013-04-04 17:55:00,
2013-04-04 12:56:00,52.3,18.5,29.91,NNW,338,12.8,12.8,26,0.00,,,0.00,VWS V14.01,2013-04-04 17:56:00,
2013-04-04 12:57:00,52.5,18.6,29.91,SSE,158,12.8,12.8,26,0.00,,,0.00,VWS V14.01,2013-04-04 17:57:00,
2013-04-04 12:58:00,52.7,18.8,29.91,NNW,338,10.7,10.7,26,0.00,,,0.00,VWS V14.01,2013-04-04 17:58:00,
2013-04-04 12:59:00,52.2,18.3,29.91,NNW,338,16.1,16.1,26,0.00,,,0.00,VWS V14.01,2013-04-04 17:59:00,
2013-04-04 13:00:00,52.3,18.5,29.91,NNW,338,16.1,16.1,26,0.00,,,0.00,VWS V14.01,2013-04-04 18:00:00,
2013-04-04 13:01:00,52.5,18.6,29.91,NNW,338,10.1,10.1,26,0.00,,,0.00,VWS V14.01,2013-04-04 18:01:00,
2013-04-04 13:02:00,52.9,19.0,29.91,NNE,22,7.4,7.4,26,0.00,,,0.00,VWS V14.01,2013-04-04 18:02:00,
2013-04-04 13:03:00,53.1,19.1,29.91,NNE,22,9.4,9.4,26,0.00,,,0.00,VWS V14.01,2013-04-04 18:03:00,
2013-04-04 13:04:00,53.2,19.3,29.91,North,0,18.8,18.8,26,0.00,,,0.00,VWS V14.01,2013-04-04 18:04:00,
2013-04-04 13:05:00,53.6,18.6,29.91,East,90,4.7,6.3,25,0.00,,,0.00,VWS V14.01,2013-04-04 18:05:00,
2013-04-04 13:06:00,53.1,19.1,29.91,ENE,68,10.1,10.1,26,0.00,,,0.00,VWS V14.01,2013-04-04 18:06:00,
2013-04-04 13:07:00,53.1,16.3,29.91,NNE,22,12.8,12.8,23,0.00,,,0.00,VWS V14.01,2013-04-04 18:07:00,
2013-04-04 13:08:00,53.1,19.1,29.91,NW,315,9.4,9.4,26,0.00,,,0.00,VWS V14.01,2013-04-04 18:08:00,
2013-04-04 13:09:00,52.9,16.1,29.91,NW,315,16.8,16.8,23,0.00,,,0.00,VWS V14.01,2013-04-04 18:09:00,
2013-04-04 13:10:00,52.5,18.6,29.91,SE,135,12.1,12.1,26,0.00,,,0.00,VWS V14.01,2013-04-04 18:10:00,
2013-04-04 13:11:00,52.5,18.6,29.91,ENE,68,18.1,18.1,26,0.00,,,0.00,VWS V14.01,2013-04-04 18:11:00,
2013-04-04 13:12:00,52.5,18.6,29.91,NNW,338,8.7,8.7,26,0.00,,,0.00,VWS V14.01,2013-04-04 18:12:00,
2013-04-04 13:13:00,52.3,15.7,29.91,NNW,338,8.7,8.7,23,0.00,,,0.00,VWS V14.01,2013-04-04 18:13:00,
2013-04-04 13:14:00,52.0,18.2,29.91,SE,135,8.1,8.1,26,0.00,,,0.00,VWS V14.01,2013-04-04 18:14:00,
2013-04-04 13:15:00,52.0,18.2,29.91,SE,135,8.1,8.1,26,0.00,,,0.00,VWS V14.01,2013-04-04 18:15:00,
2013-04-04 13:16:00,52.5,18.6,29.91,NW,315,17.5,17.5,26,0.00,,,0.00,VWS V14.01,2013-04-04 18:16:00,
2013-04-04 13:17:00,52.9,19.0,29.91,NW,315,4.7,5.8,26,0.00,,,0.00,VWS V14.01,2013-04-04 18:17:00,
2013-04-04 13:18:00,52.7,18.8,29.91,NNW,338,12.8,12.8,26,0.00,,,0.00,VWS V14.01,2013-04-04 18:18:00,
2013-04-04 13:19:00,52.5,18.6,29.91,WSW,248,16.8,16.8,26,0.00,,,0.00,VWS V14.01,2013-04-04 18:19:00,
2013-04-04 13:20:00,52.2,15.5,29.91,NW,315,19.5,19.5,23,0.00,,,0.00,VWS V14.01,2013-04-04 18:20:00,
2013-04-04 13:21:00,52.2,18.3,29.91,SSE,158,7.4,7.4,26,0.00,,,0.00,VWS V14.01,2013-04-04 18:21:00,
2013-04-04 13:22:00,52.5,18.6,29.91,ESE,112,16.1,16.1,26,0.00,,,0.00,VWS V14.01,2013-04-04 18:22:00,
2013-04-04 13:23:00,52.5,18.6,29.91,ESE,112,16.1,16.1,26,0.00,,,0.00,VWS V14.01,2013-04-04 18:23:00,
2013-04-04 13:24:00,52.5,18.6,29.91,NW,315,18.1,18.1,26,0.00,,,0.00,VWS V14.01,2013-04-04 18:24:00,
2013-04-04 13:25:00,51.6,16.0,29.91,NNW,338,29.5,29.5,24,0.00,,,0.00,VWS V14.01,2013-04-04 18:25:00,
2013-04-04 13:26:00,51.8,15.2,29.91,NNW,338,29.5,29.5,23,0.00,,,0.00,VWS V14.01,2013-04-04 18:26:00,
2013-04-04 13:27:00,52.0,15.4,29.91,North,0,8.7,9.8,23,0.00,,,0.00,VWS V14.01,2013-04-04 18:27:00,
2013-04-04 13:28:00,52.2,18.3,29.91,SSW,202,8.7,8.7,26,0.00,,,0.00,VWS V14.01,2013-04-04 18:28:00,
2013-04-04 13:29:00,52.7,18.8,29.91,WSW,248,20.8,20.8,26,0.00,,,0.00,VWS V14.01,2013-04-04 18:29:00,
2013-04-04 13:30:00,52.2,18.3,29.91,ENE,68,12.1,12.1,26,0.00,,,0.00,VWS V14.01,2013-04-04 18:30:00,
2013-04-04 13:31:00,52.3,15.7,29.91,WSW,248,7.4,7.4,23,0.00,,,0.00,VWS V14.01,2013-04-04 18:31:00,
2013-04-04 13:32:00,52.2,15.5,29.91,NNW,338,16.8,16.8,23,0.00,,,0.00,VWS V14.01,2013-04-04 18:32:00,
2013-04-04 13:33:00,52.0,15.4,29.91,NW,315,25.5,25.5,23,0.00,,,0.00,VWS V14.01,2013-04-04 18:33:00,
2013-04-04 13:34:00,52.2,15.5,29.91,WSW,248,19.5,19.5,23,0.00,,,0.00,VWS V14.01,2013-04-04 18:34:00,
2013-04-04 13:35:00,51.8,15.2,29.91,NNW,338,8.1,8.5,23,0.00,,,0.00,VWS V14.01,2013-04-04 18:35:00,
2013-04-04 13:36:00,51.4,15.9,29.91,WNW,292,12.1,12.1,24,0.00,,,0.00,VWS V14.01,2013-04-04 18:36:00,
2013-04-04 13:37:00,51.4,15.9,29.91,NNW,338,12.1,12.1,24,0.00,,,0.00,VWS V14.01,2013-04-04 18:37:00,
2013-04-04 13:38:00,51.4,15.9,29.91,SSE,158,8.7,8.7,24,0.00,,,0.00,VWS V14.01,2013-04-04 18:38:00,
2013-04-04 13:39:00,51.3,15.7,29.91,NNE,22,18.1,18.1,24,0.00,,,0.00,VWS V14.01,2013-04-04 18:39:00,
2013-04-04 13:40:00,51.4,15.9,29.91,NNE,22,18.1,18.1,24,0.00,,,0.00,VWS V14.01,2013-04-04 18:40:00,
2013-04-04 13:41:00,51.3,15.7,29.91,West,270,18.1,18.1,24,0.00,,,0.00,VWS V14.01,2013-04-04 18:41:00,
2013-04-04 13:42:00,50.9,15.4,29.91,NW,315,17.5,17.5,24,0.00,,,0.00,VWS V14.01,2013-04-04 18:42:00,
2013-04-04 13:43:00,50.9,15.4,29.91,North,0,16.1,16.1,24,0.00,,,0.00,VWS V14.01,2013-04-04 18:43:00,
2013-04-04 13:44:00,50.9,15.4,29.91,WNW,292,12.1,12.1,24,0.00,,,0.00,VWS V14.01,2013-04-04 18:44:00,
2013-04-04 13:45:00,51.1,15.6,29.91,WNW,292,12.1,12.1,24,0.00,,,0.00,VWS V14.01,2013-04-04 18:45:00,
2013-04-04 13:46:00,50.9,15.4,29.91,WNW,292,12.1,12.1,24,0.00,,,0.00,VWS V14.01,2013-04-04 18:46:00,
2013-04-04 13:47:00,50.5,15.1,29.91,North,0,20.8,20.8,24,0.00,,,0.00,VWS V14.01,2013-04-04 18:47:00,
2013-04-04 13:48:00,50.0,14.6,29.91,NNE,22,22.2,22.2,24,0.00,,,0.00,VWS V14.01,2013-04-04 18:48:00,
2013-04-04 13:49:00,50.0,14.6,29.91,NNW,338,22.2,22.2,24,0.00,,,0.00,VWS V14.01,2013-04-04 18:49:00,
2013-04-04 13:50:00,50.0,14.6,29.91,NE,45,11.4,11.4,24,0.00,,,0.00,VWS V14.01,2013-04-04 18:50:00,
2013-04-04 13:51:00,49.8,14.5,29.91,NE,45,11.4,11.4,24,0.00,,,0.00,VWS V14.01,2013-04-04 18:51:00,
2013-04-04 13:52:00,50.2,14.8,29.91,North,0,10.7,10.7,24,0.00,,,0.00,VWS V14.01,2013-04-04 18:52:00,
2013-04-04 13:53:00,50.2,14.8,29.91,NNW,338,14.8,14.8,24,0.00,,,0.00,VWS V14.01,2013-04-04 18:53:00,
2013-04-04 13:54:00,50.5,15.1,29.91,NNW,338,14.8,14.8,24,0.00,,,0.00,VWS V14.01,2013-04-04 18:54:00,
2013-04-04 13:55:00,50.2,14.8,29.91,NNW,338,25.5,25.5,24,0.00,,,0.00,VWS V14.01,2013-04-04 18:55:00,
2013-04-04 13:56:00,50.0,14.6,29.91,NNW,338,25.5,25.5,24,0.00,,,0.00,VWS V14.01,2013-04-04 18:56:00,
2013-04-04 13:57:00,49.8,14.5,29.91,NNE,22,26.2,26.2,24,0.00,,,0.00,VWS V14.01,2013-04-04 18:57:00,
2013-04-04 13:58:00,50.0,14.6,29.91,NNE,22,26.2,26.2,24,0.00,,,0.00,VWS V14.01,2013-04-04 18:58:00,
2013-04-04 13:59:00,50.0,14.6,29.91,East,90,14.8,14.8,24,0.00,,,0.00,VWS V14.01,2013-04-04 18:59:00,
2013-04-04 14:00:00,50.0,14.6,29.91,East,90,14.8,14.8,24,0.00,,,0.00,VWS V14.01,2013-04-04 19:00:00,
2013-04-04 14:01:00,50.2,14.8,29.91,East,90,14.8,14.8,24,0.00,,,0.00,VWS V14.01,2013-04-04 19:01:00,
2013-04-04 14:02:00,50.2,14.8,29.91,North,0,10.7,10.7,24,0.00,,,0.00,VWS V14.01,2013-04-04 19:02:00,
2013-04-04 14:03:00,50.2,14.8,29.91,North,0,10.7,10.7,24,0.00,,,0.00,VWS V14.01,2013-04-04 19:03:00,
2013-04-04 14:04:00,50.2,14.8,29.91,North,0,10.7,10.7,24,0.00,,,0.00,VWS V14.01,2013-04-04 19:04:00,
2013-04-04 14:05:00,50.0,14.6,29.91,NW,315,17.5,17.5,24,0.00,,,0.00,VWS V14.01,2013-04-04 19:05:00,
2013-04-04 14:06:00,50.0,14.6,29.91,NW,315,17.5,17.5,24,0.00,,,0.00,VWS V14.01,2013-04-04 19:06:00,
2013-04-04 14:07:00,50.0,14.6,29.91,NW,315,17.5,17.5,24,0.00,,,0.00,VWS V14.01,2013-04-04 19:07:00,
2013-04-04 14:08:00,49.6,14.3,29.91,NW,315,17.5,17.5,24,0.00,,,0.00,VWS V14.01,2013-04-04 19:08:00,
2013-04-04 14:09:00,49.6,14.3,29.91,NNW,338,12.1,12.1,24,0.00,,,0.00,VWS V14.01,2013-04-04 19:09:00,
2013-04-04 14:10:00,49.5,14.2,29.91,NNW,338,12.1,12.1,24,0.00,,,0.00,VWS V14.01,2013-04-04 19:10:00,
2013-04-04 14:11:00,49.1,13.9,29.91,NNW,338,12.1,12.1,24,0.00,,,0.00,VWS V14.01,2013-04-04 19:11:00,
2013-04-04 14:12:00,49.1,13.9,29.91,North,0,10.1,10.1,24,0.00,,,0.00,VWS V14.01,2013-04-04 19:12:00,
2013-04-04 14:13:00,49.5,14.2,29.91,North,0,10.1,10.1,24,0.00,,,0.00,VWS V14.01,2013-04-04 19:13:00,
2013-04-04 14:14:00,49.3,14.0,29.91,NNW,338,17.5,17.5,24,0.00,,,0.00,VWS V14.01,2013-04-04 19:14:00,
2013-04-04 14:15:00,49.3,14.0,29.91,NNW,338,17.5,17.5,24,0.00,,,0.00,VWS V14.01,2013-04-04 19:15:00,
2013-04-04 14:16:00,49.3,14.0,29.91,NNE,22,12.1,12.1,24,0.00,,,0.00,VWS V14.01,2013-04-04 19:16:00,
2013-04-04 14:17:00,49.5,14.2,29.91,NW,315,8.1,8.1,24,0.00,,,0.00,VWS V14.01,2013-04-04 19:17:00,
2013-04-04 14:18:00,49.8,14.5,29.91,North,0,6.0,6.0,24,0.00,,,0.00,VWS V14.01,2013-04-04 19:18:00,
2013-04-04 14:19:00,50.2,14.8,29.91,WNW,292,8.7,8.7,24,0.00,,,0.00,VWS V14.01,2013-04-04 19:19:00,
2013-04-04 14:20:00,49.8,14.5,29.91,ENE,68,19.5,19.5,24,0.00,,,0.00,VWS V14.01,2013-04-04 19:20:00,
2013-04-04 14:21:00,50.0,14.6,29.91,NW,315,8.1,8.1,24,0.00,,,0.00,VWS V14.01,2013-04-04 19:21:00,
2013-04-04 14:22:00,50.0,14.6,29.91,NW,315,8.1,8.1,24,0.00,,,0.00,VWS V14.01,2013-04-04 19:22:00,
2013-04-04 14:23:00,49.5,14.2,29.91,NW,315,12.1,12.1,24,0.00,,,0.00,VWS V14.01,2013-04-04 19:23:00,
2013-04-04 14:24:00,49.3,14.0,29.91,NW,315,23.5,23.5,24,0.00,,,0.00,VWS V14.01,2013-04-04 19:24:00,
2013-04-04 14:25:00,48.7,13.6,29.91,NW,315,31.6,31.6,24,0.00,,,0.00,VWS V14.01,2013-04-04 19:25:00,
2013-04-04 14:26:00,49.1,13.9,29.91,NW,315,31.6,31.6,24,0.00,,,0.00,VWS V14.01,2013-04-04 19:26:00,
2013-04-04 14:27:00,49.1,13.9,29.91,NW,315,31.6,31.6,24,0.00,,,0.00,VWS V14.01,2013-04-04 19:27:00,
2013-04-04 14:28:00,48.7,13.6,29.91,NW,315,12.8,12.8,24,0.00,,,0.00,VWS V14.01,2013-04-04 19:28:00,
2013-04-04 14:29:00,48.9,13.7,29.91,NW,315,16.1,16.1,24,0.00,,,0.00,VWS V14.01,2013-04-04 19:29:00,
2013-04-04 14:30:00,48.7,13.6,29.91,NW,315,16.1,16.1,24,0.00,,,0.00,VWS V14.01,2013-04-04 19:30:00,
2013-04-04 14:31:00,48.7,13.6,29.91,NW,315,17.5,17.5,24,0.00,,,0.00,VWS V14.01,2013-04-04 19:31:00,
2013-04-04 14:32:00,48.6,13.4,29.91,NNE,22,14.1,14.1,24,0.00,,,0.00,VWS V14.01,2013-04-04 19:32:00,
2013-04-04 14:33:00,48.6,13.4,29.91,West,270,10.1,10.1,24,0.00,,,0.00,VWS V14.01,2013-04-04 19:33:00,
2013-04-04 14:34:00,48.7,13.6,29.91,East,90,11.4,11.4,24,0.00,,,0.00,VWS V14.01,2013-04-04 19:34:00,
2013-04-04 14:35:00,48.9,13.7,29.91,East,90,11.4,11.4,24,0.00,,,0.00,VWS V14.01,2013-04-04 19:35:00,
2013-04-04 14:36:00,48.9,13.7,29.91,East,90,11.4,11.4,24,0.00,,,0.00,VWS V14.01,2013-04-04 19:36:00,
2013-04-04 14:37:00,48.9,13.7,29.91,NNW,338,16.8,16.8,24,0.00,,,0.00,VWS V14.01,2013-04-04 19:37:00,
2013-04-04 14:38:00,49.1,13.9,29.91,NW,315,9.4,9.4,24,0.00,,,0.00,VWS V14.01,2013-04-04 19:38:00,
2013-04-04 14:39:00,49.1,13.9,29.91,NNW,338,17.5,17.5,24,0.00,,,0.00,VWS V14.01,2013-04-04 19:39:00,
2013-04-04 14:40:00,49.1,13.9,29.91,West,270,14.8,14.8,24,0.00,,,0.00,VWS V14.01,2013-04-04 19:40:00,
2013-04-04 14:41:00,48.9,13.7,29.91,West,270,14.8,14.8,24,0.00,,,0.00,VWS V14.01,2013-04-04 19:41:00,
2013-04-04 14:42:00,48.9,13.7,29.91,NE,45,16.1,16.1,24,0.00,,,0.00,VWS V14.01,2013-04-04 19:42:00,
2013-04-04 14:43:00,48.9,13.7,29.91,NE,45,16.1,16.1,24,0.00,,,0.00,VWS V14.01,2013-04-04 19:43:00,
2013-04-04 14:44:00,48.7,13.6,29.91,NW,315,8.7,8.7,24,0.00,,,0.00,VWS V14.01,2013-04-04 19:44:00,
2013-04-04 14:45:00,48.9,13.7,29.91,ENE,68,11.4,11.4,24,0.00,,,0.00,VWS V14.01,2013-04-04 19:45:00,
2013-04-04 14:46:00,48.9,13.7,29.91,ENE,68,11.4,11.4,24,0.00,,,0.00,VWS V14.01,2013-04-04 19:46:00,
2013-04-04 14:47:00,48.9,13.7,29.91,ENE,68,11.4,11.4,24,0.00,,,0.00,VWS V14.01,2013-04-04 19:47:00,
2013-04-04 14:48:00,48.7,13.6,29.91,ENE,68,11.4,11.4,24,0.00,,,0.00,VWS V14.01,2013-04-04 19:48:00,
2013-04-04 14:49:00,48.9,13.7,29.91,ENE,68,11.4,11.4,24,0.00,,,0.00,VWS V14.01,2013-04-04 19:49:00,
2013-04-04 14:50:00,48.6,13.4,29.91,North,0,16.1,16.1,24,0.00,,,0.00,VWS V14.01,2013-04-04 19:50:00,
2013-04-04 14:51:00,48.7,13.6,29.91,ESE,112,14.1,14.1,24,0.00,,,0.00,VWS V14.01,2013-04-04 19:51:00,
2013-04-04 14:52:00,48.7,13.6,29.91,West,270,14.8,14.8,24,0.00,,,0.00,VWS V14.01,2013-04-04 19:52:00,
2013-04-04 14:53:00,48.6,13.4,29.91,NNW,338,21.5,21.5,24,0.00,,,0.00,VWS V14.01,2013-04-04 19:53:00,
2013-04-04 14:54:00,48.6,13.4,29.91,NE,45,30.2,30.2,24,0.00,,,0.00,VWS V14.01,2013-04-04 19:54:00,
2013-04-04 14:55:00,48.6,13.4,29.91,NW,315,22.8,22.8,24,0.00,,,0.00,VWS V14.01,2013-04-04 19:55:00,
2013-04-04 14:56:00,48.4,13.3,29.91,NNE,22,14.8,14.8,24,0.00,,,0.00,VWS V14.01,2013-04-04 19:56:00,
2013-04-04 14:57:00,48.4,13.3,29.91,WNW,292,12.8,12.8,24,0.00,,,0.00,VWS V14.01,2013-04-04 19:57:00,
2013-04-04 14:58:00,48.2,13.1,29.91,WNW,292,12.8,12.8,24,0.00,,,0.00,VWS V14.01,2013-04-04 19:58:00,
2013-04-04 14:59:00,48.6,13.4,29.91,NNW,338,8.7,8.7,24,0.00,,,0.00,VWS V14.01,2013-04-04 19:59:00,
2013-04-04 15:00:00,48.9,13.7,29.91,NNW,338,8.7,8.7,24,0.00,,,0.00,VWS V14.01,2013-04-04 20:00:00,
2013-04-04 15:01:00,48.9,13.7,29.91,NNW,338,8.7,8.7,24,0.00,,,0.00,VWS V14.01,2013-04-04 20:01:00,
2013-04-04 15:02:00,48.9,13.7,29.91,SW,225,16.1,16.1,24,0.00,,,0.00,VWS V14.01,2013-04-04 20:02:00,
2013-04-04 15:03:00,48.7,13.6,29.91,NNW,338,8.1,8.1,24,0.00,,,0.00,VWS V14.01,2013-04-04 20:03:00,
2013-04-04 15:04:00,48.7,13.6,29.91,West,270,10.7,10.7,24,0.00,,,0.00,VWS V14.01,2013-04-04 20:04:00,
2013-04-04 15:05:00,48.6,13.4,29.91,NNW,338,16.8,16.8,24,0.00,,,0.00,VWS V14.01,2013-04-04 20:05:00,
2013-04-04 15:06:00,48.4,13.3,29.91,NW,315,16.8,16.8,24,0.00,,,0.00,VWS V14.01,2013-04-04 20:06:00,
2013-04-04 15:07:00,48.6,13.4,29.91,NW,315,16.8,16.8,24,0.00,,,0.00,VWS V14.01,2013-04-04 20:07:00,
2013-04-04 15:08:00,48.7,13.6,29.91,NNE,22,11.4,11.4,24,0.00,,,0.00,VWS V14.01,2013-04-04 20:08:00,
2013-04-04 15:09:00,48.9,13.7,29.91,North,0,25.5,25.5,24,0.00,,,0.00,VWS V14.01,2013-04-04 20:09:00,
2013-04-04 15:10:00,48.9,13.7,29.91,North,0,25.5,25.5,24,0.00,,,0.00,VWS V14.01,2013-04-04 20:10:00,
2013-04-04 15:11:00,48.7,13.6,29.91,NW,315,12.1,12.1,24,0.00,,,0.00,VWS V14.01,2013-04-04 20:11:00,
2013-04-04 15:12:00,48.7,13.6,29.91,NW,315,12.1,12.1,24,0.00,,,0.00,VWS V14.01,2013-04-04 20:12:00,
2013-04-04 15:13:00,48.9,13.7,29.91,North,0,10.1,10.1,24,0.00,,,0.00,VWS V14.01,2013-04-04 20:13:00,
2013-04-04 15:14:00,49.1,13.9,29.91,North,0,10.1,10.1,24,0.00,,,0.00,VWS V14.01,2013-04-04 20:14:00,
2013-04-04 15:15:00,49.3,14.0,29.91,North,0,10.1,10.1,24,0.00,,,0.00,VWS V14.01,2013-04-04 20:15:00,
2013-04-04 15:16:00,49.5,14.2,29.91,North,0,10.1,10.1,24,0.00,,,0.00,VWS V14.01,2013-04-04 20:16:00,
2013-04-04 15:17:00,49.5,14.2,29.91,NNW,338,19.5,19.5,24,0.00,,,0.00,VWS V14.01,2013-04-04 20:17:00,
2013-04-04 15:18:00,49.1,13.9,29.91,NNW,338,19.5,19.5,24,0.00,,,0.00,VWS V14.01,2013-04-04 20:18:00,
2013-04-04 15:19:00,49.1,13.9,29.91,NNW,338,18.8,18.8,24,0.00,,,0.00,VWS V14.01,2013-04-04 20:19:00,
2013-04-04 15:20:00,48.6,13.4,29.91,NNW,338,18.8,18.8,24,0.00,,,0.00,VWS V14.01,2013-04-04 20:20:00,
2013-04-04 15:21:00,48.7,13.6,29.91,NNW,338,18.8,18.8,24,0.00,,,0.00,VWS V14.01,2013-04-04 20:21:00,
2013-04-04 15:22:00,48.7,13.6,29.91,NNW,338,22.2,22.2,24,0.00,,,0.00,VWS V14.01,2013-04-04 20:22:00,
2013-04-04 15:23:00,48.9,13.7,29.91,NNW,338,22.2,22.2,24,0.00,,,0.00,VWS V14.01,2013-04-04 20:23:00,
2013-04-04 15:24:00,48.9,13.7,29.91,West,270,6.0,7.4,24,0.00,,,0.00,VWS V14.01,2013-04-04 20:24:00,
2013-04-04 15:25:00,48.9,13.7,29.91,West,270,6.0,7.4,24,0.00,,,0.00,VWS V14.01,2013-04-04 20:25:00,
2013-04-04 15:26:00,49.1,13.9,29.91,West,270,6.0,6.0,24,0.00,,,0.00,VWS V14.01,2013-04-04 20:26:00,
2013-04-04 15:27:00,49.3,14.0,29.91,East,90,10.7,10.7,24,0.00,,,0.00,VWS V14.01,2013-04-04 20:27:00,
2013-04-04 15:28:00,49.1,13.9,29.91,NW,315,14.1,14.1,24,0.00,,,0.00,VWS V14.01,2013-04-04 20:28:00,
2013-04-04 15:29:00,48.9,13.7,29.91,NNW,338,14.8,14.8,24,0.00,,,0.00,VWS V14.01,2013-04-04 20:29:00,
2013-04-04 15:30:00,48.7,13.6,29.91,NNE,22,14.8,14.8,24,0.00,,,0.00,VWS V14.01,2013-04-04 20:30:00,
2013-04-04 15:31:00,48.9,13.7,29.91,NW,315,14.8,14.8,24,0.00,,,0.00,VWS V14.01,2013-04-04 20:31:00,
2013-04-04 15:32:00,48.9,13.7,29.91,West,270,9.4,9.4,24,0.00,,,0.00,VWS V14.01,2013-04-04 20:32:00,
2013-04-04 15:33:00,48.9,13.7,29.91,NNW,338,11.4,11.4,24,0.00,,,0.00,VWS V14.01,2013-04-04 20:33:00,
2013-04-04 15:34:00,48.9,13.7,29.91,NNW,338,11.4,11.4,24,0.00,,,0.00,VWS V14.01,2013-04-04 20:34:00,
2013-04-04 15:35:00,49.1,13.9,29.91,WNW,292,16.8,16.8,24,0.00,,,0.00,VWS V14.01,2013-04-04 20:35:00,
2013-04-04 15:36:00,49.1,13.9,29.91,NNW,338,10.7,10.7,24,0.00,,,0.00,VWS V14.01,2013-04-04 20:36:00,
2013-04-04 15:37:00,49.1,13.9,29.91,NNE,22,12.8,12.8,24,0.00,,,0.00,VWS V14.01,2013-04-04 20:37:00,
2013-04-04 15:38:00,48.7,13.6,29.91,NNE,22,12.8,12.8,24,0.00,,,0.00,VWS V14.01,2013-04-04 20:38:00,
2013-04-04 15:39:00,48.7,13.6,29.91,NNE,22,12.8,12.8,24,0.00,,,0.00,VWS V14.01,2013-04-04 20:39:00,
2013-04-04 15:40:00,49.1,13.9,29.91,NNE,22,12.8,12.8,24,0.00,,,0.00,VWS V14.01,2013-04-04 20:40:00,
2013-04-04 15:41:00,49.3,14.0,29.91,NNE,22,12.8,12.8,24,0.00,,,0.00,VWS V14.01,2013-04-04 20:41:00,
2013-04-04 15:42:00,48.9,13.7,29.91,NNE,22,12.8,12.8,24,0.00,,,0.00,VWS V14.01,2013-04-04 20:42:00,
2013-04-04 15:43:00,49.1,13.9,29.91,NNE,22,12.8,12.8,24,0.00,,,0.00,VWS V14.01,2013-04-04 20:43:00,
2013-04-04 15:44:00,49.5,14.2,29.91,NNE,22,12.8,12.8,24,0.00,,,0.00,VWS V14.01,2013-04-04 20:44:00,
2013-04-04 15:45:00,49.6,14.3,29.91,NNE,22,12.8,12.8,24,0.00,,,0.00,VWS V14.01,2013-04-04 20:45:00,
2013-04-04 15:46:00,49.6,14.3,29.91,NW,315,12.1,12.1,24,0.00,,,0.00,VWS V14.01,2013-04-04 20:46:00,
2013-04-04 15:47:00,49.5,14.2,29.91,NW,315,7.4,7.4,24,0.00,,,0.00,VWS V14.01,2013-04-04 20:47:00,
2013-04-04 15:48:00,49.3,14.0,29.91,NNE,22,8.1,8.1,24,0.00,,,0.00,VWS V14.01,2013-04-04 20:48:00,
2013-04-04 15:49:00,49.6,14.3,29.91,NNE,22,8.1,8.1,24,0.00,,,0.00,VWS V14.01,2013-04-04 20:49:00,
2013-04-04 15:50:00,49.6,14.3,29.91,NNE,22,8.1,8.1,24,0.00,,,0.00,VWS V14.01,2013-04-04 20:50:00,
2013-04-04 15:51:00,49.5,14.2,29.91,NNE,22,18.1,18.1,24,0.00,,,0.00,VWS V14.01,2013-04-04 20:51:00,
2013-04-04 15:52:00,49.5,14.2,29.91,NNE,22,8.1,8.1,24,0.00,,,0.00,VWS V14.01,2013-04-04 20:52:00,
2013-04-04 15:53:00,49.5,14.2,29.91,NNE,22,8.1,8.1,24,0.00,,,0.00,VWS V14.01,2013-04-04 20:53:00,
2013-04-04 15:54:00,49.1,13.9,29.91,West,270,8.7,8.7,24,0.00,,,0.00,VWS V14.01,2013-04-04 20:54:00,
2013-04-04 15:55:00,49.3,14.0,29.91,NNW,338,4.7,4.7,24,0.00,,,0.00,VWS V14.01,2013-04-04 20:55:00,
2013-04-04 15:56:00,49.5,14.2,29.91,NNW,338,4.7,4.7,24,0.00,,,0.00,VWS V14.01,2013-04-04 20:56:00,
2013-04-04 15:57:00,49.6,14.3,29.91,NNW,338,4.7,4.7,24,0.00,,,0.00,VWS V14.01,2013-04-04 20:57:00,
2013-04-04 15:58:00,49.3,14.0,29.91,NNW,338,4.7,4.7,24,0.00,,,0.00,VWS V14.01,2013-04-04 20:58:00,
2013-04-04 15:59:00,48.7,13.6,29.91,NNW,338,4.7,4.7,24,0.00,,,0.00,VWS V14.01,2013-04-04 20:59:00,
2013-04-04 16:00:00,48.9,13.7,29.91,NNE,22,8.7,8.7,24,0.00,,,0.00,VWS V14.01,2013-04-04 21:00:00,
2013-04-04 16:01:00,48.9,13.7,29.91,NNE,22,8.7,8.7,24,0.00,,,0.00,VWS V14.01,2013-04-04 21:01:00,
2013-04-04 16:02:00,48.9,13.7,29.91,NNE,22,8.7,8.7,24,0.00,,,0.00,VWS V14.01,2013-04-04 21:02:00,
2013-04-04 16:03:00,48.9,13.7,29.91,NNE,22,8.7,8.7,24,0.00,,,0.00,VWS V14.01,2013-04-04 21:03:00,
2013-04-04 16:04:00,48.9,13.7,29.91,NNE,22,8.7,8.7,24,0.00,,,0.00,VWS V14.01,2013-04-04 21:04:00,
2013-04-04 16:05:00,49.3,14.0,29.91,NW,315,8.7,8.7,24,0.00,,,0.00,VWS V14.01,2013-04-04 21:05:00,
2013-04-04 16:06:00,49.3,14.0,29.91,East,90,6.7,6.7,24,0.00,,,0.00,VWS V14.01,2013-04-04 21:06:00,
2013-04-04 16:07:00,49.5,14.2,29.91,East,90,6.7,6.7,24,0.00,,,0.00,VWS V14.01,2013-04-04 21:07:00,
2013-04-04 16:08:00,49.3,14.0,29.91,East,90,6.7,6.7,24,0.00,,,0.00,VWS V14.01,2013-04-04 21:08:00,
2013-04-04 16:09:00,49.3,14.0,29.91,North,0,11.4,11.4,24,0.00,,,0.00,VWS V14.01,2013-04-04 21:09:00,
2013-04-04 16:10:00,49.1,13.9,29.91,NNW,338,8.7,8.7,24,0.00,,,0.00,VWS V14.01,2013-04-04 21:10:00,
2013-04-04 16:11:00,49.3,14.0,29.91,North,0,11.4,11.4,24,0.00,,,0.00,VWS V14.01,2013-04-04 21:11:00,
2013-04-04 16:12:00,49.3,14.0,29.91,NNE,22,6.0,6.0,24,0.00,,,0.00,VWS V14.01,2013-04-04 21:12:00,
2013-04-04 16:13:00,49.5,14.2,29.91,NW,315,16.8,16.8,24,0.00,,,0.00,VWS V14.01,2013-04-04 21:13:00,
2013-04-04 16:14:00,49.3,14.0,29.91,North,0,8.1,8.1,24,0.00,,,0.00,VWS V14.01,2013-04-04 21:14:00,
2013-04-04 16:15:00,49.5,14.2,29.91,North,0,8.1,8.1,24,0.00,,,0.00,VWS V14.01,2013-04-04 21:15:00,
2013-04-04 16:16:00,49.5,14.2,29.91,North,0,8.1,8.1,24,0.00,,,0.00,VWS V14.01,2013-04-04 21:16:00,
2013-04-04 16:17:00,49.1,13.9,29.91,WSW,248,16.8,16.8,24,0.00,,,0.00,VWS V14.01,2013-04-04 21:17:00,
2013-04-04 16:18:00,49.1,13.9,29.91,WSW,248,16.8,16.8,24,0.00,,,0.00,VWS V14.01,2013-04-04 21:18:00,
2013-04-04 16:19:00,49.1,13.9,29.91,WSW,248,16.8,16.8,24,0.00,,,0.00,VWS V14.01,2013-04-04 21:19:00,
2013-04-04 16:20:00,49.1,13.9,29.91,WSW,248,16.8,16.8,24,0.00,,,0.00,VWS V14.01,2013-04-04 21:20:00,
2013-04-04 16:21:00,48.9,13.7,29.91,WSW,248,16.8,16.8,24,0.00,,,0.00,VWS V14.01,2013-04-04 21:21:00,
2013-04-04 16:22:00,48.6,13.4,29.91,WSW,248,16.8,16.8,24,0.00,,,0.00,VWS V14.01,2013-04-04 21:22:00,
2013-04-04 16:23:00,48.7,13.6,29.91,WSW,248,16.8,16.8,24,0.00,,,0.00,VWS V14.01,2013-04-04 21:23:00,
2013-04-04 16:24:00,48.7,13.6,29.91,WSW,248,16.8,16.8,24,0.00,,,0.00,VWS V14.01,2013-04-04 21:24:00,
2013-04-04 16:25:00,48.7,13.6,29.91,WSW,248,16.8,16.8,24,0.00,,,0.00,VWS V14.01,2013-04-04 21:25:00,
2013-04-04 16:26:00,48.7,13.6,29.91,North,0,10.1,10.1,24,0.00,,,0.00,VWS V14.01,2013-04-04 21:26:00,
2013-04-04 16:27:00,48.2,13.1,29.91,North,0,10.1,10.1,24,0.00,,,0.00,VWS V14.01,2013-04-04 21:27:00,
2013-04-04 16:28:00,48.2,13.1,29.91,SSE,158,11.4,11.4,24,0.00,,,0.00,VWS V14.01,2013-04-04 21:28:00,
2013-04-04 16:29:00,48.2,13.1,29.91,SSE,158,11.4,11.4,24,0.00,,,0.00,VWS V14.01,2013-04-04 21:29:00,
2013-04-04 16:30:00,47.8,12.8,29.91,SSE,158,11.4,11.4,24,0.00,,,0.00,VWS V14.01,2013-04-04 21:30:00,
2013-04-04 16:31:00,47.8,12.8,29.91,SSE,158,11.4,11.4,24,0.00,,,0.00,VWS V14.01,2013-04-04 21:31:00,
2013-04-04 16:32:00,47.5,12.5,29.91,SSE,158,11.4,11.4,24,0.00,,,0.00,VWS V14.01,2013-04-04 21:32:00,
2013-04-04 16:33:00,47.5,12.5,29.91,SSE,158,11.4,11.4,24,0.00,,,0.00,VWS V14.01,2013-04-04 21:33:00,
2013-04-04 16:34:00,47.3,12.4,29.91,NW,315,11.4,11.4,24,0.00,,,0.00,VWS V14.01,2013-04-04 21:34:00,
2013-04-04 16:35:00,47.5,12.5,29.91,NW,315,11.4,11.4,24,0.00,,,0.00,VWS V14.01,2013-04-04 21:35:00,
2013-04-04 16:36:00,47.5,12.5,29.91,NW,315,11.4,11.4,24,0.00,,,0.00,VWS V14.01,2013-04-04 21:36:00,
2013-04-04 16:37:00,47.3,12.4,29.91,NW,315,11.4,11.4,24,0.00,,,0.00,VWS V14.01,2013-04-04 21:37:00,
2013-04-04 16:38:00,47.3,12.4,29.91,NW,315,11.4,11.4,24,0.00,,,0.00,VWS V14.01,2013-04-04 21:38:00,
2013-04-04 16:39:00,47.3,12.4,29.91,NW,315,11.4,11.4,24,0.00,,,0.00,VWS V14.01,2013-04-04 21:39:00,
2013-04-04 16:40:00,47.3,12.4,29.91,NW,315,11.4,11.4,24,0.00,,,0.00,VWS V14.01,2013-04-04 21:40:00,
2013-04-04 16:41:00,47.3,12.4,29.94,NW,315,11.4,11.4,24,0.00,,,0.00,VWS V14.01,2013-04-04 21:41:00,
2013-04-04 16:42:00,47.3,12.4,29.94,NW,315,11.4,11.4,24,0.00,,,0.00,VWS V14.01,2013-04-04 21:42:00,
2013-04-04 16:43:00,46.9,12.1,29.94,NW,315,11.4,11.4,24,0.00,,,0.00,VWS V14.01,2013-04-04 21:43:00,
2013-04-04 16:44:00,46.9,12.1,29.94,NW,315,11.4,11.4,24,0.00,,,0.00,VWS V14.01,2013-04-04 21:44:00,
2013-04-04 16:45:00,46.8,11.9,29.94,NW,315,11.4,11.4,24,0.00,,,0.00,VWS V14.01,2013-04-04 21:45:00,
2013-04-04 16:46:00,46.8,11.9,29.94,NW,315,11.4,11.4,24,0.00,,,0.00,VWS V14.01,2013-04-04 21:46:00,
2013-04-04 16:47:00,46.9,12.1,29.94,NW,315,11.4,11.4,24,0.00,,,0.00,VWS V14.01,2013-04-04 21:47:00,
2013-04-04 16:48:00,46.8,11.9,29.94,NW,315,8.1,8.1,24,0.00,,,0.00,VWS V14.01,2013-04-04 21:48:00,
2013-04-04 16:49:00,46.6,11.7,29.94,NW,315,8.1,8.1,24,0.00,,,0.00,VWS V14.01,2013-04-04 21:49:00,
2013-04-04 16:50:00,46.6,11.7,29.94,NW,315,8.1,8.1,24,0.00,,,0.00,VWS V14.01,2013-04-04 21:50:00,
2013-04-04 16:51:00,46.4,11.6,29.94,NW,315,8.1,8.1,24,0.00,,,0.00,VWS V14.01,2013-04-04 21:51:00,
2013-04-04 16:52:00,46.4,11.6,29.94,NW,315,8.1,8.1,24,0.00,,,0.00,VWS V14.01,2013-04-04 21:52:00,
2013-04-04 16:53:00,46.2,12.4,29.94,NW,315,16.1,16.1,25,0.00,,,0.00,VWS V14.01,2013-04-04 21:53:00,
2013-04-04 16:54:00,45.9,12.0,29.94,NNW,338,12.1,12.1,25,0.00,,,0.00,VWS V14.01,2013-04-04 21:54:00,
2013-04-04 16:55:00,45.9,12.0,29.94,NNW,338,12.1,12.1,25,0.00,,,0.00,VWS V14.01,2013-04-04 21:55:00,
2013-04-04 16:56:00,45.7,11.9,29.94,NNW,338,12.1,12.1,25,0.00,,,0.00,VWS V14.01,2013-04-04 21:56:00,
2013-04-04 16:57:00,45.5,11.7,29.94,NNW,338,11.4,11.4,25,0.00,,,0.00,VWS V14.01,2013-04-04 21:57:00,
2013-04-04 16:58:00,45.3,11.6,29.94,NNW,338,11.4,11.4,25,0.00,,,0.00,VWS V14.01,2013-04-04 21:58:00,
2013-04-04 16:59:00,45.5,11.7,29.94,NNW,338,11.4,11.4,25,0.00,,,0.00,VWS V14.01,2013-04-04 21:59:00,
2013-04-04 17:00:00,45.5,11.7,29.94,NW,315,11.4,11.4,25,0.00,,,0.00,VWS V14.01,2013-04-04 22:00:00,
2013-04-04 17:01:00,45.5,11.7,29.94,NW,315,11.4,11.4,25,0.00,,,0.00,VWS V14.01,2013-04-04 22:01:00,
2013-04-04 17:02:00,45.1,11.4,29.94,NW,315,11.4,11.4,25,0.00,,,0.00,VWS V14.01,2013-04-04 22:02:00,
2013-04-04 17:03:00,45.3,11.6,29.94,NW,315,11.4,11.4,25,0.00,,,0.00,VWS V14.01,2013-04-04 22:03:00,
2013-04-04 17:04:00,45.1,11.4,29.94,NW,315,11.4,11.4,25,0.00,,,0.00,VWS V14.01,2013-04-04 22:04:00,
2013-04-04 17:05:00,45.1,11.4,29.94,NW,315,12.1,12.1,25,0.00,,,0.00,VWS V14.01,2013-04-04 22:05:00,
2013-04-04 17:06:00,45.0,11.3,29.94,NW,315,12.1,12.1,25,0.00,,,0.00,VWS V14.01,2013-04-04 22:06:00,
2013-04-04 17:07:00,45.1,11.4,29.94,NW,315,12.1,12.1,25,0.00,,,0.00,VWS V14.01,2013-04-04 22:07:00,
2013-04-04 17:08:00,45.1,11.4,29.94,NW,315,12.1,12.1,25,0.00,,,0.00,VWS V14.01,2013-04-04 22:08:00,
2013-04-04 17:09:00,44.8,11.1,29.94,NW,315,12.1,12.1,25,0.00,,,0.00,VWS V14.01,2013-04-04 22:09:00,
2013-04-04 17:10:00,44.6,11.0,29.94,NW,315,12.1,12.1,25,0.00,,,0.00,VWS V14.01,2013-04-04 22:10:00,
2013-04-04 17:11:00,44.6,11.0,29.94,NW,315,12.1,12.1,25,0.00,,,0.00,VWS V14.01,2013-04-04 22:11:00,
2013-04-04 17:12:00,44.2,10.7,29.94,NW,315,10.1,10.1,25,0.00,,,0.00,VWS V14.01,2013-04-04 22:12:00,
2013-04-04 17:13:00,44.2,10.7,29.94,NW,315,10.1,10.1,25,0.00,,,0.00,VWS V14.01,2013-04-04 22:13:00,
2013-04-04 17:14:00,44.1,10.5,29.94,NW,315,10.1,10.1,25,0.00,,,0.00,VWS V14.01,2013-04-04 22:14:00,
2013-04-04 17:15:00,44.1,10.5,29.94,NW,315,10.1,10.1,25,0.00,,,0.00,VWS V14.01,2013-04-04 22:15:00,
2013-04-04 17:16:00,44.1,10.5,29.94,NW,315,10.1,10.1,25,0.00,,,0.00,VWS V14.01,2013-04-04 22:16:00,
2013-04-04 17:17:00,43.7,10.2,29.94,NNE,22,18.1,18.1,25,0.00,,,0.00,VWS V14.01,2013-04-04 22:17:00,
2013-04-04 17:18:00,43.5,10.0,29.94,NNE,22,18.8,18.8,25,0.00,,,0.00,VWS V14.01,2013-04-04 22:18:00,
2013-04-04 17:19:00,43.3,9.9,29.94,NNE,22,18.8,18.8,25,0.00,,,0.00,VWS V14.01,2013-04-04 22:19:00,
2013-04-04 17:20:00,43.2,9.7,29.94,NNE,22,18.8,18.8,25,0.00,,,0.00,VWS V14.01,2013-04-04 22:20:00,
2013-04-04 17:21:00,43.2,9.7,29.94,NNE,22,18.8,18.8,25,0.00,,,0.00,VWS V14.01,2013-04-04 22:21:00,
2013-04-04 17:22:00,43.0,9.6,29.94,NNE,22,18.8,18.8,25,0.00,,,0.00,VWS V14.01,2013-04-04 22:22:00,
2013-04-04 17:23:00,42.8,9.4,29.94,NNE,22,18.8,18.8,25,0.00,,,0.00,VWS V14.01,2013-04-04 22:23:00,
2013-04-04 17:24:00,42.8,9.4,29.94,NNE,22,11.4,11.4,25,0.00,,,0.00,VWS V14.01,2013-04-04 22:24:00,
2013-04-04 17:25:00,42.6,10.1,29.94,NNW,338,10.7,10.7,26,0.00,,,0.00,VWS V14.01,2013-04-04 22:25:00,
2013-04-04 17:26:00,42.6,10.1,29.94,NNW,338,10.7,10.7,26,0.00,,,0.00,VWS V14.01,2013-04-04 22:26:00,
2013-04-04 17:27:00,42.4,10.0,29.94,NNW,338,10.7,10.7,26,0.00,,,0.00,VWS V14.01,2013-04-04 22:27:00,
2013-04-04 17:28:00,42.3,9.8,29.94,NNW,338,10.7,10.7,26,0.00,,,0.00,VWS V14.01,2013-04-04 22:28:00,
2013-04-04 17:29:00,42.3,9.8,29.94,SE,135,3.4,3.6,26,0.00,,,0.00,VWS V14.01,2013-04-04 22:29:00,
2013-04-04 17:30:00,42.4,10.0,29.94,SE,135,3.4,3.6,26,0.00,,,0.00,VWS V14.01,2013-04-04 22:30:00,
2013-04-04 17:31:00,42.3,9.8,29.94,SE,135,3.4,3.4,26,0.00,,,0.00,VWS V14.01,2013-04-04 22:31:00,
2013-04-04 17:32:00,42.3,9.8,29.94,SE,135,3.4,3.4,26,0.00,,,0.00,VWS V14.01,2013-04-04 22:32:00,
2013-04-04 17:33:00,42.3,9.8,29.94,SE,135,3.4,3.4,26,0.00,,,0.00,VWS V14.01,2013-04-04 22:33:00,
2013-04-04 17:34:00,42.3,9.8,29.94,SE,135,3.4,3.4,26,0.00,,,0.00,VWS V14.01,2013-04-04 22:34:00,
2013-04-04 17:35:00,42.3,9.8,29.94,SE,135,3.4,3.4,26,0.00,,,0.00,VWS V14.01,2013-04-04 22:35:00,
2013-04-04 17:36:00,42.3,9.8,29.94,SE,135,3.4,3.4,26,0.00,,,0.00,VWS V14.01,2013-04-04 22:36:00,
2013-04-04 17:37:00,42.3,9.8,29.94,SE,135,3.4,3.4,26,0.00,,,0.00,VWS V14.01,2013-04-04 22:37:00,
2013-04-04 17:38:00,42.3,9.8,29.94,SE,135,3.4,3.4,26,0.00,,,0.00,VWS V14.01,2013-04-04 22:38:00,
2013-04-04 17:39:00,42.3,9.8,29.94,SE,135,3.4,3.4,26,0.00,,,0.00,VWS V14.01,2013-04-04 22:39:00,
2013-04-04 17:40:00,42.1,9.7,29.94,SE,135,3.4,3.4,26,0.00,,,0.00,VWS V14.01,2013-04-04 22:40:00,
2013-04-04 17:41:00,41.7,9.4,29.94,SE,135,3.4,3.4,26,0.00,,,0.00,VWS V14.01,2013-04-04 22:41:00,
2013-04-04 17:42:00,41.7,9.4,29.94,SE,135,3.4,3.4,26,0.00,,,0.00,VWS V14.01,2013-04-04 22:42:00,
2013-04-04 17:43:00,41.7,9.4,29.94,SE,135,3.4,3.4,26,0.00,,,0.00,VWS V14.01,2013-04-04 22:43:00,
2013-04-04 17:44:00,41.5,9.2,29.94,NW,315,16.8,16.8,26,0.00,,,0.00,VWS V14.01,2013-04-04 22:44:00,
2013-04-04 17:45:00,41.5,9.2,29.94,NW,315,16.8,16.8,26,0.00,,,0.00,VWS V14.01,2013-04-04 22:45:00,
2013-04-04 17:46:00,41.2,8.9,29.94,NW,315,16.8,16.8,26,0.00,,,0.00,VWS V14.01,2013-04-04 22:46:00,
2013-04-04 17:47:00,41.2,8.9,29.94,NW,315,16.8,16.8,26,0.00,,,0.00,VWS V14.01,2013-04-04 22:47:00,
2013-04-04 17:48:00,41.0,8.8,29.94,NW,315,16.8,16.8,26,0.00,,,0.00,VWS V14.01,2013-04-04 22:48:00,
2013-04-04 17:49:00,40.8,8.6,29.94,NW,315,16.8,16.8,26,0.00,,,0.00,VWS V14.01,2013-04-04 22:49:00,
2013-04-04 17:50:00,40.8,8.6,29.94,NW,315,16.8,16.8,26,0.00,,,0.00,VWS V14.01,2013-04-04 22:50:00,
2013-04-04 17:51:00,40.8,8.6,29.94,NW,315,16.8,16.8,26,0.00,,,0.00,VWS V14.01,2013-04-04 22:51:00,
2013-04-04 17:52:00,40.8,10.2,29.94,NW,315,16.8,16.8,28,0.00,,,0.00,VWS V14.01,2013-04-04 22:52:00,
2013-04-04 17:53:00,41.0,10.4,29.94,NW,315,16.8,16.8,28,0.00,,,0.00,VWS V14.01,2013-04-04 22:53:00,
2013-04-04 17:54:00,41.0,10.4,29.94,NW,315,16.8,16.8,28,0.00,,,0.00,VWS V14.01,2013-04-04 22:54:00,
2013-04-04 17:55:00,41.0,10.4,29.94,NW,315,16.8,16.8,28,0.00,,,0.00,VWS V14.01,2013-04-04 22:55:00,
2013-04-04 17:56:00,41.0,8.8,29.91,NW,315,16.8,16.8,26,0.00,,,0.00,VWS V14.01,2013-04-04 22:56:00,
2013-04-04 17:57:00,41.0,8.8,29.91,NW,315,16.8,16.8,26,0.00,,,0.00,VWS V14.01,2013-04-04 22:57:00,
2013-04-04 17:58:00,41.0,8.8,29.91,NW,315,16.8,16.8,26,0.00,,,0.00,VWS V14.01,2013-04-04 22:58:00,
2013-04-04 17:59:00,41.0,8.8,29.91,North,0,9.4,9.4,26,0.00,,,0.00,VWS V14.01,2013-04-04 22:59:00,
2013-04-04 18:00:00,41.0,8.8,29.91,North,0,10.1,10.1,26,0.00,,,0.00,VWS V14.01,2013-04-04 23:00:00,
2013-04-04 18:01:00,40.8,8.6,29.91,North,0,10.1,10.1,26,0.00,,,0.00,VWS V14.01,2013-04-04 23:01:00,
2013-04-04 18:02:00,40.6,10.1,29.91,North,0,10.1,10.1,28,0.00,,,0.00,VWS V14.01,2013-04-04 23:02:00,
2013-04-04 18:03:00,40.5,8.3,29.91,North,0,10.1,10.1,26,0.00,,,0.00,VWS V14.01,2013-04-04 23:03:00,
2013-04-04 18:04:00,40.5,9.9,29.91,West,270,10.7,10.7,28,0.00,,,0.00,VWS V14.01,2013-04-04 23:04:00,
2013-04-04 18:05:00,40.3,9.8,29.91,West,270,10.7,10.7,28,0.00,,,0.00,VWS V14.01,2013-04-04 23:05:00,
2013-04-04 18:06:00,40.3,9.8,29.91,West,270,10.7,10.7,28,0.00,,,0.00,VWS V14.01,2013-04-04 23:06:00,
2013-04-04 18:07:00,40.3,9.8,29.91,West,270,10.7,10.7,28,0.00,,,0.00,VWS V14.01,2013-04-04 23:07:00,
2013-04-04 18:08:00,40.3,9.8,29.91,West,270,10.7,10.7,28,0.00,,,0.00,VWS V14.01,2013-04-04 23:08:00,
2013-04-04 18:09:00,39.9,9.5,29.91,West,270,10.7,10.7,28,0.00,,,0.00,VWS V14.01,2013-04-04 23:09:00,
2013-04-04 18:10:00,39.9,9.5,29.91,West,270,10.7,10.7,28,0.00,,,0.00,VWS V14.01,2013-04-04 23:10:00,
2013-04-04 18:11:00,39.7,9.3,29.94,West,270,10.7,10.7,28,0.00,,,0.00,VWS V14.01,2013-04-04 23:11:00,
2013-04-04 18:12:00,39.7,9.3,29.94,West,270,10.7,10.7,28,0.00,,,0.00,VWS V14.01,2013-04-04 23:12:00,
2013-04-04 18:13:00,39.6,9.2,29.94,West,270,10.7,10.7,28,0.00,,,0.00,VWS V14.01,2013-04-04 23:13:00,
2013-04-04 18:14:00,39.6,9.2,29.94,West,270,10.7,10.7,28,0.00,,,0.00,VWS V14.01,2013-04-04 23:14:00,
2013-04-04 18:15:00,39.7,9.3,29.94,West,270,10.7,10.7,28,0.00,,,0.00,VWS V14.01,2013-04-04 23:15:00,
2013-04-04 18:16:00,39.7,9.3,29.94,NNE,22,6.7,6.7,28,0.00,,,0.00,VWS V14.01,2013-04-04 23:16:00,
2013-04-04 18:17:00,39.9,9.5,29.94,NNE,22,6.7,6.7,28,0.00,,,0.00,VWS V14.01,2013-04-04 23:17:00,
2013-04-04 18:18:00,39.7,9.3,29.94,NNE,22,6.7,6.7,28,0.00,,,0.00,VWS V14.01,2013-04-04 23:18:00,
2013-04-04 18:19:00,39.6,9.2,29.94,NNE,22,6.7,6.7,28,0.00,,,0.00,VWS V14.01,2013-04-04 23:19:00,
2013-04-04 18:20:00,39.2,8.9,29.94,NNE,22,6.7,6.7,28,0.00,,,0.00,VWS V14.01,2013-04-04 23:20:00,
2013-04-04 18:21:00,38.8,9.3,29.94,NNE,22,6.7,6.7,29,0.00,,,0.00,VWS V14.01,2013-04-04 23:21:00,
2013-04-04 18:22:00,38.8,9.3,29.94,North,0,8.1,8.1,29,0.00,,,0.00,VWS V14.01,2013-04-04 23:22:00,
2013-04-04 18:23:00,38.7,9.2,29.94,NNW,338,10.1,10.1,29,0.00,,,0.00,VWS V14.01,2013-04-04 23:23:00,
2013-04-04 18:24:00,38.7,9.2,29.94,NNW,338,10.1,10.1,29,0.00,,,0.00,VWS V14.01,2013-04-04 23:24:00,
2013-04-04 18:25:00,38.5,9.0,29.94,NNW,338,10.1,10.1,29,0.00,,,0.00,VWS V14.01,2013-04-04 23:25:00,
2013-04-04 18:26:00,38.5,9.0,29.94,NNW,338,10.1,10.1,29,0.00,,,0.00,VWS V14.01,2013-04-04 23:26:00,
2013-04-04 18:27:00,38.5,9.0,29.94,NNW,338,10.1,10.1,29,0.00,,,0.00,VWS V14.01,2013-04-04 23:27:00,
2013-04-04 18:28:00,38.3,8.8,29.94,NNW,338,10.1,10.1,29,0.00,,,0.00,VWS V14.01,2013-04-04 23:28:00,
2013-04-04 18:29:00,38.1,8.7,29.94,NNW,338,10.1,10.1,29,0.00,,,0.00,VWS V14.01,2013-04-04 23:29:00,
2013-04-04 18:30:00,38.1,8.7,29.94,NNW,338,10.1,10.1,29,0.00,,,0.00,VWS V14.01,2013-04-04 23:30:00,
2013-04-04 18:31:00,38.1,8.7,29.94,NNW,338,10.1,10.1,29,0.00,,,0.00,VWS V14.01,2013-04-04 23:31:00,
2013-04-04 18:32:00,37.9,8.5,29.94,NNW,338,10.1,10.1,29,0.00,,,0.00,VWS V14.01,2013-04-04 23:32:00,
2013-04-04 18:33:00,37.9,8.5,29.94,NNW,338,10.1,10.1,29,0.00,,,0.00,VWS V14.01,2013-04-04 23:33:00,
2013-04-04 18:34:00,37.9,8.5,29.94,NNW,338,10.1,10.1,29,0.00,,,0.00,VWS V14.01,2013-04-04 23:34:00,
2013-04-04 18:35:00,37.8,8.4,29.94,NNW,338,10.1,10.1,29,0.00,,,0.00,VWS V14.01,2013-04-04 23:35:00,
2013-04-04 18:36:00,37.6,8.2,29.94,NNW,338,12.8,12.8,29,0.00,,,0.00,VWS V14.01,2013-04-04 23:36:00,
2013-04-04 18:37:00,37.6,8.2,29.94,NNW,338,12.8,12.8,29,0.00,,,0.00,VWS V14.01,2013-04-04 23:37:00,
2013-04-04 18:38:00,37.6,8.2,29.94,NNW,338,12.8,12.8,29,0.00,,,0.00,VWS V14.01,2013-04-04 23:38:00,
2013-04-04 18:39:00,37.6,8.2,29.94,NNW,338,12.8,12.8,29,0.00,,,0.00,VWS V14.01,2013-04-04 23:39:00,
2013-04-04 18:40:00,37.6,8.2,29.94,NW,315,9.4,9.4,29,0.00,,,0.00,VWS V14.01,2013-04-04 23:40:00,
2013-04-04 18:41:00,37.4,8.1,29.94,WSW,248,18.1,18.1,29,0.00,,,0.00,VWS V14.01,2013-04-04 23:41:00,
2013-04-04 18:42:00,37.2,8.6,29.94,SW,225,7.4,7.4,30,0.00,,,0.00,VWS V14.01,2013-04-04 23:42:00,
2013-04-04 18:43:00,37.2,8.6,29.94,SW,225,7.4,7.4,30,0.00,,,0.00,VWS V14.01,2013-04-04 23:43:00,
2013-04-04 18:44:00,37.2,8.6,29.94,SW,225,7.4,7.4,30,0.00,,,0.00,VWS V14.01,2013-04-04 23:44:00,
2013-04-04 18:45:00,37.0,8.5,29.94,North,0,10.7,10.7,30,0.00,,,0.00,VWS V14.01,2013-04-04 23:45:00,
2013-04-04 18:46:00,37.0,8.5,29.94,WNW,292,12.8,12.8,30,0.00,,,0.00,VWS V14.01,2013-04-04 23:46:00,
2013-04-04 18:47:00,37.0,8.5,29.94,WNW,292,12.8,12.8,30,0.00,,,0.00,VWS V14.01,2013-04-04 23:47:00,
2013-04-04 18:48:00,36.9,8.3,29.94,NW,315,8.7,8.7,30,0.00,,,0.00,VWS V14.01,2013-04-04 23:48:00,
2013-04-04 18:49:00,36.9,8.3,29.94,WNW,292,10.7,10.7,30,0.00,,,0.00,VWS V14.01,2013-04-04 23:49:00,
2013-04-04 18:50:00,36.9,8.3,29.94,WNW,292,10.7,10.7,30,0.00,,,0.00,VWS V14.01,2013-04-04 23:50:00,
2013-04-04 18:51:00,36.9,8.3,29.94,WNW,292,8.7,8.7,30,0.00,,,0.00,VWS V14.01,2013-04-04 23:51:00,
2013-04-04 18:52:00,36.7,8.2,29.94,WNW,292,8.7,8.7,30,0.00,,,0.00,VWS V14.01,2013-04-04 23:52:00,
2013-04-04 18:53:00,36.7,8.2,29.94,NE,45,6.0,6.0,30,0.00,,,0.00,VWS V14.01,2013-04-04 23:53:00,
2013-04-04 18:54:00,36.7,8.2,29.94,East,90,8.7,8.7,30,0.00,,,0.00,VWS V14.01,2013-04-04 23:54:00,
2013-04-04 18:55:00,36.7,8.2,29.94,WNW,292,8.7,8.7,30,0.00,,,0.00,VWS V14.01,2013-04-04 23:55:00,
2013-04-04 18:56:00,36.7,8.2,29.94,NNW,338,17.5,17.5,30,0.00,,,0.00,VWS V14.01,2013-04-04 23:56:00,
2013-04-04 18:57:00,36.7,8.2,29.94,NNW,338,17.5,17.5,30,0.00,,,0.00,VWS V14.01,2013-04-04 23:57:00,
2013-04-04 18:58:00,36.3,7.9,29.94,NNW,338,17.5,17.5,30,0.00,,,0.00,VWS V14.01,2013-04-04 23:58:00,
2013-04-04 18:59:00,36.3,7.9,29.94,North,0,10.7,10.7,30,0.00,,,0.00,VWS V14.01,2013-04-04 23:59:00,
2013-04-04 19:00:00,36.3,7.9,29.94,West,270,4.7,4.7,30,0.00,,,0.00,VWS V14.01,2013-04-05 00:00:00,
2013-04-04 19:01:00,36.3,7.9,29.94,West,270,4.7,4.7,30,0.00,,,0.00,VWS V14.01,2013-04-05 00:01:00,
2013-04-04 19:02:00,36.3,7.9,29.94,West,270,4.7,4.7,30,0.00,,,0.00,VWS V14.01,2013-04-05 00:02:00,
2013-04-04 19:03:00,36.0,7.6,29.94,West,270,4.7,4.7,30,0.00,,,0.00,VWS V14.01,2013-04-05 00:03:00,
2013-04-04 19:04:00,36.0,8.3,29.94,West,270,4.7,4.7,31,0.00,,,0.00,VWS V14.01,2013-04-05 00:04:00,
2013-04-04 19:05:00,35.8,8.1,29.94,NNW,338,4.7,4.7,31,0.00,,,0.00,VWS V14.01,2013-04-05 00:05:00,
2013-04-04 19:06:00,35.8,8.1,29.94,NNW,338,4.7,4.7,31,0.00,,,0.00,VWS V14.01,2013-04-05 00:06:00,
2013-04-04 19:07:00,35.6,8.0,29.94,NNW,338,4.7,4.7,31,0.00,,,0.00,VWS V14.01,2013-04-05 00:07:00,
2013-04-04 19:08:00,35.6,8.0,29.94,NNW,338,6.0,6.0,31,0.00,,,0.00,VWS V14.01,2013-04-05 00:08:00,
2013-04-04 19:09:00,35.6,8.0,29.94,NNW,338,7.4,7.4,31,0.00,,,0.00,VWS V14.01,2013-04-05 00:09:00,
2013-04-04 19:10:00,35.6,8.0,29.94,NNW,338,7.4,7.4,31,0.00,,,0.00,VWS V14.01,2013-04-05 00:10:00,
2013-04-04 19:11:00,35.6,8.0,29.94,NW,315,11.4,11.4,31,0.00,,,0.00,VWS V14.01,2013-04-05 00:11:00,
2013-04-04 19:12:00,35.6,8.0,29.94,NNE,22,12.1,12.1,31,0.00,,,0.00,VWS V14.01,2013-04-05 00:12:00,
2013-04-04 19:13:00,35.6,8.0,29.94,NNE,22,12.1,12.1,31,0.00,,,0.00,VWS V14.01,2013-04-05 00:13:00,
2013-04-04 19:14:00,35.6,8.0,29.94,NNE,22,12.1,12.1,31,0.00,,,0.00,VWS V14.01,2013-04-05 00:14:00,
2013-04-04 19:15:00,35.4,8.5,29.94,NNE,22,12.1,12.1,32,0.00,,,0.00,VWS V14.01,2013-04-05 00:15:00,
2013-04-04 19:16:00,35.4,8.5,29.94,NNE,22,12.1,12.1,32,0.00,,,0.00,VWS V14.01,2013-04-05 00:16:00,
2013-04-04 19:17:00,35.4,8.5,29.94,NNE,22,12.1,12.1,32,0.00,,,0.00,VWS V14.01,2013-04-05 00:17:00,
2013-04-04 19:18:00,35.2,8.4,29.94,NNE,22,12.1,12.1,32,0.00,,,0.00,VWS V14.01,2013-04-05 00:18:00,
2013-04-04 19:19:00,35.2,8.4,29.94,North,0,9.4,9.4,32,0.00,,,0.00,VWS V14.01,2013-04-05 00:19:00,
2013-04-04 19:20:00,35.2,8.4,29.94,NNW,338,8.1,8.1,32,0.00,,,0.00,VWS V14.01,2013-04-05 00:20:00,
2013-04-04 19:21:00,35.1,8.2,29.94,NNW,338,8.1,8.1,32,0.00,,,0.00,VWS V14.01,2013-04-05 00:21:00,
2013-04-04 19:22:00,35.1,8.2,29.94,NNW,338,8.1,8.1,32,0.00,,,0.00,VWS V14.01,2013-04-05 00:22:00,
2013-04-04 19:23:00,35.1,8.2,29.94,NW,315,14.8,14.8,32,0.00,,,0.00,VWS V14.01,2013-04-05 00:23:00,
2013-04-04 19:24:00,34.9,8.0,29.94,NNE,22,6.0,6.0,32,0.00,,,0.00,VWS V14.01,2013-04-05 00:24:00,
2013-04-04 19:25:00,34.9,8.0,29.94,NNE,22,6.0,6.0,32,0.00,,,0.00,VWS V14.01,2013-04-05 00:25:00,
2013-04-04 19:26:00,34.9,8.0,29.94,NNE,22,6.0,6.0,32,0.00,,,0.00,VWS V14.01,2013-04-05 00:26:00,
2013-04-04 19:27:00,34.7,7.9,29.94,NNW,338,9.4,9.4,32,0.00,,,0.00,VWS V14.01,2013-04-05 00:27:00,
2013-04-04 19:28:00,34.7,7.9,29.94,NNW,338,11.4,11.4,32,0.00,,,0.00,VWS V14.01,2013-04-05 00:28:00,
2013-04-04 19:29:00,34.5,8.4,29.94,NNW,338,11.4,11.4,33,0.00,,,0.00,VWS V14.01,2013-04-05 00:29:00,
2013-04-04 19:30:00,34.5,8.4,29.94,NNW,338,10.1,10.1,33,0.00,,,0.00,VWS V14.01,2013-04-05 00:30:00,
2013-04-04 19:31:00,34.5,8.4,29.94,North,0,8.1,8.1,33,0.00,,,0.00,VWS V14.01,2013-04-05 00:31:00,
2013-04-04 19:32:00,34.5,8.4,29.94,NNW,338,10.1,10.1,33,0.00,,,0.00,VWS V14.01,2013-04-05 00:32:00,
2013-04-04 19:34:00,34.5,8.4,29.94,NNE,22,4.0,4.0,33,0.00,,,0.00,VWS V14.01,2013-04-05 00:34:00,
2013-04-04 19:36:00,34.5,8.4,29.94,NNW,338,10.1,10.1,33,0.00,,,0.00,VWS V14.01,2013-04-05 00:36:00,
2013-04-04 19:37:00,34.3,8.2,29.94,NNW,338,8.1,8.1,33,0.00,,,0.00,VWS V14.01,2013-04-05 00:37:00,
2013-04-04 19:38:00,34.3,8.2,29.94,NNE,22,7.4,7.4,33,0.00,,,0.00,VWS V14.01,2013-04-05 00:38:00,
2013-04-04 19:39:00,34.3,8.9,29.94,West,270,4.7,4.7,34,0.00,,,0.00,VWS V14.01,2013-04-05 00:39:00,
2013-04-04 19:40:00,34.3,8.9,29.94,NNE,22,10.1,10.1,34,0.00,,,0.00,VWS V14.01,2013-04-05 00:40:00,
2013-04-04 19:41:00,34.2,8.7,29.94,North,0,3.4,3.4,34,0.00,,,0.00,VWS V14.01,2013-04-05 00:41:00,
2013-04-04 19:42:00,34.2,8.7,29.94,NW,315,10.7,10.7,34,0.00,,,0.00,VWS V14.01,2013-04-05 00:42:00,
2013-04-04 19:43:00,34.2,8.7,29.94,NW,315,6.0,6.0,34,0.00,,,0.00,VWS V14.01,2013-04-05 00:43:00,
2013-04-04 19:44:00,34.0,8.6,29.94,NNW,338,6.7,6.7,34,0.00,,,0.00,VWS V14.01,2013-04-05 00:44:00,
2013-04-04 19:45:00,34.0,8.6,29.94,North,0,6.7,6.7,34,0.00,,,0.00,VWS V14.01,2013-04-05 00:45:00,
2013-04-04 19:46:00,34.0,8.6,29.94,North,0,6.7,6.7,34,0.00,,,0.00,VWS V14.01,2013-04-05 00:46:00,
2013-04-04 19:47:00,34.0,8.6,29.94,East,90,7.4,7.4,34,0.00,,,0.00,VWS V14.01,2013-04-05 00:47:00,
2013-04-04 19:48:00,34.0,8.6,29.94,NW,315,4.7,4.7,34,0.00,,,0.00,VWS V14.01,2013-04-05 00:48:00,
2013-04-04 19:49:00,33.8,8.4,29.94,NW,315,4.7,4.7,34,0.00,,,0.00,VWS V14.01,2013-04-05 00:49:00,
2013-04-04 19:50:00,33.8,8.4,29.94,NW,315,4.7,4.7,34,0.00,,,0.00,VWS V14.01,2013-04-05 00:50:00,
2013-04-04 19:51:00,33.8,9.1,29.94,NW,315,4.7,4.7,35,0.00,,,0.00,VWS V14.01,2013-04-05 00:51:00,
2013-04-04 19:52:00,33.8,9.1,29.94,NW,315,4.7,4.7,35,0.00,,,0.00,VWS V14.01,2013-04-05 00:52:00,
2013-04-04 19:53:00,33.6,8.9,29.94,NW,315,4.7,4.7,35,0.00,,,0.00,VWS V14.01,2013-04-05 00:53:00,
2013-04-04 19:54:00,33.6,8.9,29.94,NW,315,4.7,4.7,35,0.00,,,0.00,VWS V14.01,2013-04-05 00:54:00,
2013-04-04 19:55:00,33.6,8.9,29.94,NW,315,4.7,4.7,35,0.00,,,0.00,VWS V14.01,2013-04-05 00:55:00,
2013-04-04 19:56:00,33.6,9.5,29.94,NW,315,4.7,4.7,36,0.00,,,0.00,VWS V14.01,2013-04-05 00:56:00,
2013-04-04 19:57:00,33.6,9.5,29.94,North,0,6.7,6.7,36,0.00,,,0.00,VWS V14.01,2013-04-05 00:57:00,
2013-04-04 19:58:00,33.6,9.5,29.94,North,0,6.7,6.7,36,0.00,,,0.00,VWS V14.01,2013-04-05 00:58:00,
2013-04-04 19:59:00,33.6,9.5,29.94,WSW,248,6.0,6.0,36,0.00,,,0.00,VWS V14.01,2013-04-05 00:59:00,
2013-04-04 20:00:00,33.4,9.4,29.94,WSW,248,6.0,6.0,36,0.00,,,0.00,VWS V14.01,2013-04-05 01:00:00,
2013-04-04 20:01:00,33.4,9.4,29.94,North,0,16.8,16.8,36,0.00,,,0.00,VWS V14.01,2013-04-05 01:01:00,
2013-04-04 20:02:00,33.4,9.4,29.94,North,0,16.8,16.8,36,0.00,,,0.00,VWS V14.01,2013-04-05 01:02:00,
2013-04-04 20:03:00,33.4,10.0,29.94,NNE,22,10.7,10.7,37,0.00,,,0.00,VWS V14.01,2013-04-05 01:03:00,
2013-04-04 20:04:00,33.3,9.8,29.94,West,270,8.1,8.1,37,0.00,,,0.00,VWS V14.01,2013-04-05 01:04:00,
2013-04-04 20:05:00,33.3,9.8,29.94,North,0,2.7,3.6,37,0.00,,,0.00,VWS V14.01,2013-04-05 01:05:00,
2013-04-04 20:06:00,33.3,9.2,29.94,North,0,2.7,2.7,36,0.00,,,0.00,VWS V14.01,2013-04-05 01:06:00,
2013-04-04 20:07:00,33.3,9.8,29.94,NNE,22,10.7,10.7,37,0.00,,,0.00,VWS V14.01,2013-04-05 01:07:00,
2013-04-04 20:08:00,33.3,10.4,29.94,East,90,4.7,4.7,38,0.00,,,0.00,VWS V14.01,2013-04-05 01:08:00,
2013-04-04 20:09:00,33.1,9.7,29.94,NW,315,4.0,4.0,37,0.00,,,0.00,VWS V14.01,2013-04-05 01:09:00,
2013-04-04 20:10:00,33.1,9.7,29.94,NNW,338,8.1,8.1,37,0.00,,,0.00,VWS V14.01,2013-04-05 01:10:00,
2013-04-04 20:11:00,33.1,10.2,29.97,NW,315,3.4,3.4,38,0.00,,,0.00,VWS V14.01,2013-04-05 01:11:00,
2013-04-04 20:12:00,33.1,10.2,29.97,NNE,22,4.7,4.7,38,0.00,,,0.00,VWS V14.01,2013-04-05 01:12:00,
2013-04-04 20:13:00,33.1,10.2,29.97,NW,315,10.1,10.1,38,0.00,,,0.00,VWS V14.01,2013-04-05 01:13:00,
2013-04-04 20:14:00,33.1,10.2,29.97,NNW,338,6.0,6.0,38,0.00,,,0.00,VWS V14.01,2013-04-05 01:14:00,
2013-04-04 20:15:00,33.1,10.8,29.97,NNW,338,16.8,16.8,39,0.00,,,0.00,VWS V14.01,2013-04-05 01:15:00,
2013-04-04 20:16:00,32.9,10.7,29.97,NW,315,7.4,7.4,39,0.00,,,0.00,VWS V14.01,2013-04-05 01:16:00,
2013-04-04 20:17:00,32.9,10.7,29.97,WNW,292,8.7,8.7,39,0.00,,,0.00,VWS V14.01,2013-04-05 01:17:00,
2013-04-04 20:18:00,32.9,10.7,29.97,NNE,22,4.7,4.7,39,0.00,,,0.00,VWS V14.01,2013-04-05 01:18:00,
2013-04-04 20:19:00,32.9,10.7,29.97,NW,315,7.4,7.4,39,0.00,,,0.00,VWS V14.01,2013-04-05 01:19:00,
2013-04-04 20:20:00,32.9,11.2,29.97,NNW,338,9.4,9.4,40,0.00,,,0.00,VWS V14.01,2013-04-05 01:20:00,
2013-04-04 20:21:00,32.9,11.2,29.97,NNE,22,10.1,10.1,40,0.00,,,0.00,VWS V14.01,2013-04-05 01:21:00,
2013-04-04 20:22:00,32.9,11.2,29.97,NW,315,10.7,10.7,40,0.00,,,0.00,VWS V14.01,2013-04-05 01:22:00,
2013-04-04 20:23:00,32.7,11.1,29.97,NW,315,10.7,10.7,40,0.00,,,0.00,VWS V14.01,2013-04-05 01:23:00,
2013-04-04 20:24:00,32.7,11.1,29.97,NNE,22,6.0,6.0,40,0.00,,,0.00,VWS V14.01,2013-04-05 01:24:00,
2013-04-04 20:25:00,32.7,10.5,29.97,NNE,22,6.0,6.0,39,0.00,,,0.00,VWS V14.01,2013-04-05 01:25:00,
2013-04-04 20:26:00,32.7,11.1,29.97,WNW,292,4.0,4.0,40,0.00,,,0.00,VWS V14.01,2013-04-05 01:26:00,
2013-04-04 20:27:00,32.5,10.4,29.97,North,0,7.4,7.4,39,0.00,,,0.00,VWS V14.01,2013-04-05 01:27:00,
2013-04-04 20:28:00,32.5,10.4,29.97,West,270,8.1,8.1,39,0.00,,,0.00,VWS V14.01,2013-04-05 01:28:00,
2013-04-04 20:29:00,32.5,10.9,29.97,NNE,22,4.0,4.0,40,0.00,,,0.00,VWS V14.01,2013-04-05 01:29:00,
2013-04-04 20:30:00,32.5,10.9,29.97,NNW,338,9.4,9.4,40,0.00,,,0.00,VWS V14.01,2013-04-05 01:30:00,
2013-04-04 20:31:00,32.5,10.9,29.97,NW,315,8.7,8.7,40,0.00,,,0.00,VWS V14.01,2013-04-05 01:31:00,
2013-04-04 20:32:00,32.7,11.1,29.97,East,90,8.7,8.7,40,0.00,,,0.00,VWS V14.01,2013-04-05 01:32:00,
2013-04-04 20:33:00,32.7,11.1,29.97,North,0,7.4,7.4,40,0.00,,,0.00,VWS V14.01,2013-04-05 01:33:00,
2013-04-04 20:34:00,32.7,11.1,29.97,NE,45,6.0,6.0,40,0.00,,,0.00,VWS V14.01,2013-04-05 01:34:00,
2013-04-04 20:36:00,32.5,10.9,29.97,WNW,292,11.4,11.4,40,0.00,,,0.00,VWS V14.01,2013-04-05 01:36:00,
2013-04-04 20:37:00,32.5,10.9,29.97,NNE,22,6.0,6.0,40,0.00,,,0.00,VWS V14.01,2013-04-05 01:37:00,
2013-04-04 20:38:00,32.5,10.9,29.97,NNW,338,8.1,8.1,40,0.00,,,0.00,VWS V14.01,2013-04-05 01:38:00,
2013-04-04 20:39:00,32.5,10.9,29.97,NNE,22,7.4,7.4,40,0.00,,,0.00,VWS V14.01,2013-04-05 01:39:00,
2013-04-04 20:40:00,32.5,10.9,29.97,NW,315,0.0,2.5,40,0.00,,,0.00,VWS V14.01,2013-04-05 01:40:00,
2013-04-04 20:41:00,32.5,10.9,29.97,NNW,338,8.7,8.7,40,0.00,,,0.00,VWS V14.01,2013-04-05 01:41:00,
2013-04-04 20:42:00,32.5,10.9,29.97,ENE,68,8.1,8.1,40,0.00,,,0.00,VWS V14.01,2013-04-05 01:42:00,
2013-04-04 20:43:00,32.5,10.9,29.97,NW,315,4.7,4.7,40,0.00,,,0.00,VWS V14.01,2013-04-05 01:43:00,
2013-04-04 20:44:00,32.4,10.8,29.97,North,0,8.1,8.1,40,0.00,,,0.00,VWS V14.01,2013-04-05 01:44:00,
2013-04-04 20:45:00,32.4,10.8,29.97,North,0,8.1,8.1,40,0.00,,,0.00,VWS V14.01,2013-04-05 01:45:00,
2013-04-04 20:46:00,32.4,10.8,29.97,NW,315,8.1,8.1,40,0.00,,,0.00,VWS V14.01,2013-04-05 01:46:00,
2013-04-04 20:47:00,32.4,10.8,29.97,NNW,338,14.8,14.8,40,0.00,,,0.00,VWS V14.01,2013-04-05 01:47:00,
2013-04-04 20:48:00,32.4,10.8,29.97,NNW,338,14.8,14.8,40,0.00,,,0.00,VWS V14.01,2013-04-05 01:48:00,
2013-04-04 20:49:00,32.4,11.3,29.97,NW,315,12.8,12.8,41,0.00,,,0.00,VWS V14.01,2013-04-05 01:49:00,
2013-04-04 20:50:00,32.4,11.3,29.97,NW,315,12.8,12.8,41,0.00,,,0.00,VWS V14.01,2013-04-05 01:50:00,
2013-04-04 20:51:00,32.4,10.8,29.97,NE,45,6.0,6.0,40,0.00,,,0.00,VWS V14.01,2013-04-05 01:51:00,
2013-04-04 20:52:00,32.4,11.3,29.97,NE,45,6.0,6.0,41,0.00,,,0.00,VWS V14.01,2013-04-05 01:52:00,
2013-04-04 20:53:00,32.2,10.6,29.97,South,180,3.4,3.4,40,0.00,,,0.00,VWS V14.01,2013-04-05 01:53:00,
2013-04-04 20:54:00,32.2,10.6,29.97,South,180,3.4,3.4,40,0.00,,,0.00,VWS V14.01,2013-04-05 01:54:00,
2013-04-04 20:55:00,32.2,10.6,30.00,South,180,3.4,3.4,40,0.00,,,0.00,VWS V14.01,2013-04-05 01:55:00,
2013-04-04 20:56:00,32.2,10.6,30.00,South,180,3.4,3.4,40,0.00,,,0.00,VWS V14.01,2013-04-05 01:56:00,
2013-04-04 20:57:00,32.0,10.4,30.00,WNW,292,8.7,8.7,40,0.00,,,0.00,VWS V14.01,2013-04-05 01:57:00,
2013-04-04 20:58:00,32.0,11.0,30.00,NNW,338,0.0,2.9,41,0.00,,,0.00,VWS V14.01,2013-04-05 01:58:00,
2013-04-04 20:59:00,32.0,10.4,30.00,NNW,338,0.0,2.9,40,0.00,,,0.00,VWS V14.01,2013-04-05 01:59:00,
2013-04-04 21:00:00,31.8,10.3,30.00,North,0,8.1,8.1,40,0.00,,,0.00,VWS V14.01,2013-04-05 02:00:00,
2013-04-04 21:01:00,31.6,10.1,30.00,NE,45,4.0,4.0,40,0.00,,,0.00,VWS V14.01,2013-04-05 02:01:00,
2013-04-04 21:02:00,31.6,10.1,30.00,NNW,338,4.7,4.7,40,0.00,,,0.00,VWS V14.01,2013-04-05 02:02:00,
2013-04-04 21:03:00,31.5,9.9,30.00,ENE,68,7.4,7.4,40,0.00,,,0.00,VWS V14.01,2013-04-05 02:03:00,
2013-04-04 21:04:00,31.5,9.9,30.00,NNW,338,3.4,3.4,40,0.00,,,0.00,VWS V14.01,2013-04-05 02:04:00,
2013-04-04 21:05:00,31.5,10.5,30.00,NE,45,8.1,8.1,41,0.00,,,0.00,VWS V14.01,2013-04-05 02:05:00,
2013-04-04 21:06:00,31.5,10.5,30.00,NW,315,4.7,4.7,41,0.00,,,0.00,VWS V14.01,2013-04-05 02:06:00,
2013-04-04 21:07:00,31.5,10.5,30.00,NNW,338,4.7,4.7,41,0.00,,,0.00,VWS V14.01,2013-04-05 02:07:00,
2013-04-04 21:08:00,31.5,10.5,30.00,NNW,338,8.7,8.7,41,0.00,,,0.00,VWS V14.01,2013-04-05 02:08:00,
2013-04-04 21:09:00,31.5,10.5,30.00,NNW,338,8.1,8.1,41,0.00,,,0.00,VWS V14.01,2013-04-05 02:09:00,
2013-04-04 21:10:00,31.5,10.5,30.00,NNW,338,6.0,6.0,41,0.00,,,0.00,VWS V14.01,2013-04-05 02:10:00,
2013-04-04 21:11:00,31.3,10.3,30.00,NNW,338,10.7,10.7,41,0.00,,,0.00,VWS V14.01,2013-04-05 02:11:00,
2013-04-04 21:12:00,31.3,10.3,30.00,NNW,338,7.4,7.4,41,0.00,,,0.00,VWS V14.01,2013-04-05 02:12:00,
2013-04-04 21:13:00,31.3,10.3,30.00,NNW,338,7.4,7.4,41,0.00,,,0.00,VWS V14.01,2013-04-05 02:13:00,
2013-04-04 21:14:00,31.3,10.3,30.00,NNW,338,7.4,7.4,41,0.00,,,0.00,VWS V14.01,2013-04-05 02:14:00,
2013-04-04 21:15:00,31.3,10.3,30.00,NNW,338,7.4,7.4,41,0.00,,,0.00,VWS V14.01,2013-04-05 02:15:00,
2013-04-04 21:16:00,31.1,10.2,30.00,NW,315,9.4,9.4,41,0.00,,,0.00,VWS V14.01,2013-04-05 02:16:00,
2013-04-04 21:17:00,31.3,10.3,30.00,NW,315,9.4,9.4,41,0.00,,,0.00,VWS V14.01,2013-04-05 02:17:00,
2013-04-04 21:18:00,31.3,10.3,30.00,NNW,338,3.4,3.4,41,0.00,,,0.00,VWS V14.01,2013-04-05 02:18:00,
2013-04-04 21:19:00,31.1,10.2,30.00,NNW,338,3.4,3.4,41,0.00,,,0.00,VWS V14.01,2013-04-05 02:19:00,
2013-04-04 21:20:00,31.1,10.2,30.00,NNW,338,3.4,3.4,41,0.00,,,0.00,VWS V14.01,2013-04-05 02:20:00,
2013-04-04 21:21:00,31.1,10.2,30.00,NNW,338,3.4,3.4,41,0.00,,,0.00,VWS V14.01,2013-04-05 02:21:00,
2013-04-04 21:22:00,31.1,10.2,30.00,NW,315,9.4,9.4,41,0.00,,,0.00,VWS V14.01,2013-04-05 02:22:00,
2013-04-04 21:23:00,31.1,10.2,30.00,NW,315,7.4,7.4,41,0.00,,,0.00,VWS V14.01,2013-04-05 02:23:00,
2013-04-04 21:24:00,31.1,10.2,30.00,NNW,338,2.7,3.1,41,0.00,,,0.00,VWS V14.01,2013-04-05 02:24:00,
2013-04-04 21:25:00,31.1,10.2,30.00,NNW,338,2.7,2.7,41,0.00,,,0.00,VWS V14.01,2013-04-05 02:25:00,
2013-04-04 21:26:00,31.1,10.2,30.00,NNW,338,2.7,2.7,41,0.00,,,0.00,VWS V14.01,2013-04-05 02:26:00,
2013-04-04 21:27:00,31.1,10.2,30.00,NW,315,4.7,4.7,41,0.00,,,0.00,VWS V14.01,2013-04-05 02:27:00,
2013-04-04 21:28:00,31.1,10.2,30.00,NNW,338,10.7,10.7,41,0.00,,,0.00,VWS V14.01,2013-04-05 02:28:00,
2013-04-04 21:29:00,31.1,10.7,30.00,NNW,338,4.0,4.0,42,0.00,,,0.00,VWS V14.01,2013-04-05 02:29:00,
2013-04-04 21:30:00,31.1,10.2,30.00,NNW,338,4.0,4.0,41,0.00,,,0.00,VWS V14.01,2013-04-05 02:30:00,
2013-04-04 21:31:00,30.9,10.0,30.00,NE,45,7.4,7.4,41,0.00,,,0.00,VWS V14.01,2013-04-05 02:31:00,
2013-04-04 21:32:00,30.9,10.0,30.00,NW,315,12.1,12.1,41,0.00,,,0.00,VWS V14.01,2013-04-05 02:32:00,
2013-04-04 21:33:00,30.9,10.0,30.00,North,0,7.4,7.4,41,0.00,,,0.00,VWS V14.01,2013-04-05 02:33:00,
2013-04-04 21:34:00,30.7,9.8,30.00,North,0,7.4,7.4,41,0.00,,,0.00,VWS V14.01,2013-04-05 02:34:00,
2013-04-04 21:35:00,30.7,9.8,30.00,North,0,7.4,7.4,41,0.00,,,0.00,VWS V14.01,2013-04-05 02:35:00,
2013-04-04 21:36:00,30.7,9.8,30.00,North,0,7.4,7.4,41,0.00,,,0.00,VWS V14.01,2013-04-05 02:36:00,
2013-04-04 21:37:00,30.7,9.8,30.00,North,0,7.4,7.4,41,0.00,,,0.00,VWS V14.01,2013-04-05 02:37:00,
2013-04-04 21:38:00,30.7,9.8,30.00,North,0,7.4,7.4,41,0.00,,,0.00,VWS V14.01,2013-04-05 02:38:00,
2013-04-04 21:39:00,30.6,10.2,30.00,North,0,7.4,7.4,42,0.00,,,0.00,VWS V14.01,2013-04-05 02:39:00,
2013-04-04 21:40:00,30.6,9.7,30.00,North,0,7.4,7.4,41,0.00,,,0.00,VWS V14.01,2013-04-05 02:40:00,
2013-04-04 21:41:00,30.6,9.7,30.00,NNW,338,8.7,8.7,41,0.00,,,0.00,VWS V14.01,2013-04-05 02:41:00,
2013-04-04 21:42:00,30.4,9.5,30.00,NNW,338,8.7,8.7,41,0.00,,,0.00,VWS V14.01,2013-04-05 02:42:00,
2013-04-04 21:43:00,30.4,9.5,30.00,NNW,338,8.7,8.7,41,0.00,,,0.00,VWS V14.01,2013-04-05 02:43:00,
2013-04-04 21:44:00,30.4,10.1,30.00,NNW,338,8.7,8.7,42,0.00,,,0.00,VWS V14.01,2013-04-05 02:44:00,
2013-04-04 21:45:00,30.4,10.1,30.00,NNW,338,8.7,8.7,42,0.00,,,0.00,VWS V14.01,2013-04-05 02:45:00,
2013-04-04 21:46:00,30.4,10.1,30.00,NNW,338,8.7,8.7,42,0.00,,,0.00,VWS V14.01,2013-04-05 02:46:00,
2013-04-04 21:47:00,30.4,10.1,30.00,NNW,338,8.7,8.7,42,0.00,,,0.00,VWS V14.01,2013-04-05 02:47:00,
2013-04-04 21:48:00,30.4,10.1,30.00,NNW,338,8.7,8.7,42,0.00,,,0.00,VWS V14.01,2013-04-05 02:48:00,
2013-04-04 21:49:00,30.2,9.9,30.00,NNW,338,8.7,8.7,42,0.00,,,0.00,VWS V14.01,2013-04-05 02:49:00,
2013-04-04 21:50:00,30.2,9.9,30.00,NNW,338,8.7,8.7,42,0.00,,,0.00,VWS V14.01,2013-04-05 02:50:00,
2013-04-04 21:51:00,30.2,9.9,30.00,NNW,338,8.7,8.7,42,0.00,,,0.00,VWS V14.01,2013-04-05 02:51:00,
2013-04-04 21:52:00,30.2,9.9,30.00,East,90,10.1,10.1,42,0.00,,,0.00,VWS V14.01,2013-04-05 02:52:00,
2013-04-04 21:53:00,30.2,9.9,30.00,East,90,10.1,10.1,42,0.00,,,0.00,VWS V14.01,2013-04-05 02:53:00,
2013-04-04 21:54:00,30.2,9.9,30.00,East,90,10.1,10.1,42,0.00,,,0.00,VWS V14.01,2013-04-05 02:54:00,
2013-04-04 21:55:00,30.2,9.9,30.00,East,90,10.1,10.1,42,0.00,,,0.00,VWS V14.01,2013-04-05 02:55:00,
2013-04-04 21:56:00,30.2,9.9,30.00,NE,45,6.0,6.0,42,0.00,,,0.00,VWS V14.01,2013-04-05 02:56:00,
2013-04-04 21:57:00,30.0,9.7,30.00,NE,45,6.0,6.0,42,0.00,,,0.00,VWS V14.01,2013-04-05 02:57:00,
2013-04-04 21:58:00,30.0,9.7,30.00,NE,45,6.0,6.0,42,0.00,,,0.00,VWS V14.01,2013-04-05 02:58:00,
2013-04-04 21:59:00,30.0,9.7,30.00,NE,45,6.0,6.0,42,0.00,,,0.00,VWS V14.01,2013-04-05 02:59:00,
2013-04-04 22:00:00,30.0,9.7,30.00,NE,45,6.0,6.0,42,0.00,,,0.00,VWS V14.01,2013-04-05 03:00:00,
2013-04-04 22:01:00,30.0,9.7,30.00,NE,45,6.0,6.0,42,0.00,,,0.00,VWS V14.01,2013-04-05 03:01:00,
2013-04-04 22:02:00,30.0,9.7,30.00,NNW,338,8.1,8.1,42,0.00,,,0.00,VWS V14.01,2013-04-05 03:02:00,
2013-04-04 22:03:00,29.8,9.6,30.00,NNW,338,8.1,8.1,42,0.00,,,0.00,VWS V14.01,2013-04-05 03:03:00,
2013-04-04 22:04:00,29.8,9.6,30.00,NNW,338,8.1,8.1,42,0.00,,,0.00,VWS V14.01,2013-04-05 03:04:00,
2013-04-04 22:05:00,29.8,9.6,30.00,NNW,338,8.1,8.1,42,0.00,,,0.00,VWS V14.01,2013-04-05 03:05:00,
2013-04-04 22:06:00,29.8,9.6,30.00,NNW,338,10.1,10.1,42,0.00,,,0.00,VWS V14.01,2013-04-05 03:06:00,
2013-04-04 22:07:00,29.7,9.9,30.00,NNW,338,10.1,10.1,43,0.00,,,0.00,VWS V14.01,2013-04-05 03:07:00,
2013-04-04 22:08:00,29.7,9.9,30.00,NW,315,4.7,4.7,43,0.00,,,0.00,VWS V14.01,2013-04-05 03:08:00,
2013-04-04 22:09:00,29.7,9.9,30.00,North,0,3.4,3.4,43,0.00,,,0.00,VWS V14.01,2013-04-05 03:09:00,
2013-04-04 22:10:00,29.7,9.9,30.00,North,0,3.4,3.4,43,0.00,,,0.00,VWS V14.01,2013-04-05 03:10:00,
2013-04-04 22:11:00,29.7,9.9,30.00,North,0,3.4,3.4,43,0.00,,,0.00,VWS V14.01,2013-04-05 03:11:00,
2013-04-04 22:12:00,29.7,9.9,30.00,SE,135,4.7,4.7,43,0.00,,,0.00,VWS V14.01,2013-04-05 03:12:00,
2013-04-04 22:13:00,29.7,9.9,30.00,SE,135,4.7,4.7,43,0.00,,,0.00,VWS V14.01,2013-04-05 03:13:00,
2013-04-04 22:14:00,29.7,9.9,30.00,SE,135,4.7,4.7,43,0.00,,,0.00,VWS V14.01,2013-04-05 03:14:00,
2013-04-04 22:15:00,29.5,9.8,30.00,NW,315,7.4,7.4,43,0.00,,,0.00,VWS V14.01,2013-04-05 03:15:00,
2013-04-04 22:16:00,29.7,9.9,30.00,North,0,7.4,7.4,43,0.00,,,0.00,VWS V14.01,2013-04-05 03:16:00,
2013-04-04 22:17:00,29.5,9.8,30.00,NNW,338,4.7,4.7,43,0.00,,,0.00,VWS V14.01,2013-04-05 03:17:00,
2013-04-04 22:18:00,29.5,9.8,30.00,NNW,338,4.7,4.7,43,0.00,,,0.00,VWS V14.01,2013-04-05 03:18:00,
2013-04-04 22:19:00,29.5,9.8,30.00,NNW,338,8.7,8.7,43,0.00,,,0.00,VWS V14.01,2013-04-05 03:19:00,
2013-04-04 22:20:00,29.5,9.8,30.00,NW,315,7.4,7.4,43,0.00,,,0.00,VWS V14.01,2013-04-05 03:20:00,
2013-04-04 22:21:00,29.5,9.8,30.00,NW,315,3.4,3.4,43,0.00,,,0.00,VWS V14.01,2013-04-05 03:21:00,
2013-04-04 22:22:00,29.3,9.6,30.00,NW,315,3.4,3.4,43,0.00,,,0.00,VWS V14.01,2013-04-05 03:22:00,
2013-04-04 22:23:00,29.3,9.6,30.00,NW,315,3.4,3.4,43,0.00,,,0.00,VWS V14.01,2013-04-05 03:23:00,
2013-04-04 22:24:00,29.3,9.6,30.00,NW,315,3.4,3.4,43,0.00,,,0.00,VWS V14.01,2013-04-05 03:24:00,
2013-04-04 22:25:00,29.3,9.6,29.97,NW,315,3.4,3.4,43,0.00,,,0.00,VWS V14.01,2013-04-05 03:25:00,
2013-04-04 22:26:00,29.3,9.6,29.97,NW,315,3.4,3.4,43,0.00,,,0.00,VWS V14.01,2013-04-05 03:26:00,
2013-04-04 22:27:00,29.3,9.6,29.97,NW,315,3.4,3.4,43,0.00,,,0.00,VWS V14.01,2013-04-05 03:27:00,
2013-04-04 22:28:00,29.3,9.6,29.97,NW,315,3.4,3.4,43,0.00,,,0.00,VWS V14.01,2013-04-05 03:28:00,
2013-04-04 22:29:00,29.3,9.6,29.97,NW,315,3.4,3.4,43,0.00,,,0.00,VWS V14.01,2013-04-05 03:29:00,
2013-04-04 22:30:00,29.3,9.6,29.97,NW,315,3.4,3.4,43,0.00,,,0.00,VWS V14.01,2013-04-05 03:30:00,
2013-04-04 22:31:00,29.1,9.4,29.97,NW,315,3.4,3.4,43,0.00,,,0.00,VWS V14.01,2013-04-05 03:31:00,
2013-04-04 22:32:00,29.1,9.4,29.97,NW,315,3.4,3.4,43,0.00,,,0.00,VWS V14.01,2013-04-05 03:32:00,
2013-04-04 22:33:00,29.1,9.4,29.97,NW,315,3.4,3.4,43,0.00,,,0.00,VWS V14.01,2013-04-05 03:33:00,
2013-04-04 22:34:00,29.1,9.4,29.97,North,0,7.4,7.4,43,0.00,,,0.00,VWS V14.01,2013-04-05 03:34:00,
2013-04-04 22:35:00,28.9,9.3,29.97,North,0,7.4,7.4,43,0.00,,,0.00,VWS V14.01,2013-04-05 03:35:00,
2013-04-04 22:36:00,29.1,9.4,29.97,North,0,7.4,7.4,43,0.00,,,0.00,VWS V14.01,2013-04-05 03:36:00,
2013-04-04 22:37:00,28.9,9.3,29.97,NNW,338,8.1,8.1,43,0.00,,,0.00,VWS V14.01,2013-04-05 03:37:00,
2013-04-04 22:38:00,28.9,9.3,29.97,NNW,338,8.1,8.1,43,0.00,,,0.00,VWS V14.01,2013-04-05 03:38:00,
2013-04-04 22:39:00,28.9,9.3,29.97,North,0,2.7,2.7,43,0.00,,,0.00,VWS V14.01,2013-04-05 03:39:00,
2013-04-04 22:40:00,28.9,9.3,29.97,North,0,2.7,2.7,43,0.00,,,0.00,VWS V14.01,2013-04-05 03:40:00,
2013-04-04 22:41:00,28.9,9.3,29.97,North,0,2.7,2.7,43,0.00,,,0.00,VWS V14.01,2013-04-05 03:41:00,
2013-04-04 22:42:00,28.9,9.3,29.97,North,0,2.7,2.7,43,0.00,,,0.00,VWS V14.01,2013-04-05 03:42:00,
2013-04-04 22:43:00,28.8,9.1,29.97,North,0,2.7,2.7,43,0.00,,,0.00,VWS V14.01,2013-04-05 03:43:00,
2013-04-04 22:44:00,28.8,9.1,29.97,NNW,338,3.4,3.4,43,0.00,,,0.00,VWS V14.01,2013-04-05 03:44:00,
2013-04-04 22:45:00,28.8,9.1,29.97,NNW,338,3.4,3.4,43,0.00,,,0.00,VWS V14.01,2013-04-05 03:45:00,
2013-04-04 22:46:00,28.8,9.1,29.97,NW,315,0.0,1.1,43,0.00,,,0.00,VWS V14.01,2013-04-05 03:46:00,
2013-04-04 22:47:00,28.6,8.9,29.97,NNW,338,4.0,4.0,43,0.00,,,0.00,VWS V14.01,2013-04-05 03:47:00,
2013-04-04 22:48:00,28.6,8.9,29.97,NNW,338,8.7,8.7,43,0.00,,,0.00,VWS V14.01,2013-04-05 03:48:00,
2013-04-04 22:49:00,28.6,8.9,29.97,North,0,4.7,4.7,43,0.00,,,0.00,VWS V14.01,2013-04-05 03:49:00,
2013-04-04 22:50:00,28.6,8.9,29.97,North,0,4.7,4.7,43,0.00,,,0.00,VWS V14.01,2013-04-05 03:50:00,
2013-04-04 22:51:00,28.6,8.9,29.97,NNW,338,4.7,4.7,43,0.00,,,0.00,VWS V14.01,2013-04-05 03:51:00,
2013-04-04 22:52:00,28.6,8.9,29.97,NNW,338,4.7,4.7,43,0.00,,,0.00,VWS V14.01,2013-04-05 03:52:00,
2013-04-04 22:53:00,28.6,8.9,29.97,NNW,338,4.7,4.7,43,0.00,,,0.00,VWS V14.01,2013-04-05 03:53:00,
2013-04-04 22:54:00,28.6,8.9,29.97,NNW,338,4.7,4.7,43,0.00,,,0.00,VWS V14.01,2013-04-05 03:54:00,
2013-04-04 22:55:00,28.6,8.9,29.97,North,0,4.0,4.0,43,0.00,,,0.00,VWS V14.01,2013-04-05 03:55:00,
2013-04-04 22:56:00,28.6,8.9,30.00,NNW,338,4.0,4.0,43,0.00,,,0.00,VWS V14.01,2013-04-05 03:56:00,
2013-04-04 22:57:00,28.6,8.9,30.00,SW,225,8.7,8.7,43,0.00,,,0.00,VWS V14.01,2013-04-05 03:57:00,
2013-04-04 22:58:00,28.6,8.9,30.00,NNE,22,16.1,16.1,43,0.00,,,0.00,VWS V14.01,2013-04-05 03:58:00,
2013-04-04 22:59:00,28.6,8.9,30.00,North,0,4.7,5.4,43,0.00,,,0.00,VWS V14.01,2013-04-05 03:59:00,
2013-04-04 23:00:00,28.6,8.9,30.00,NW,315,4.7,4.7,43,0.00,,,0.00,VWS V14.01,2013-04-05 04:00:00,
2013-04-04 23:01:00,28.6,8.9,30.00,NW,315,2.7,2.7,43,0.00,,,0.00,VWS V14.01,2013-04-05 04:01:00,
2013-04-04 23:02:00,28.4,8.8,30.00,NW,315,0.0,0.9,43,0.00,,,0.00,VWS V14.01,2013-04-05 04:02:00,
2013-04-04 23:03:00,28.2,8.6,30.00,NW,315,0.0,0.9,43,0.00,,,0.00,VWS V14.01,2013-04-05 04:03:00,
2013-04-04 23:04:00,28.0,8.4,30.00,NW,315,0.0,0.0,43,0.00,,,0.00,VWS V14.01,2013-04-05 04:04:00,
2013-04-04 23:05:00,28.0,8.4,30.00,NW,315,0.0,0.0,43,0.00,,,0.00,VWS V14.01,2013-04-05 04:05:00,
2013-04-04 23:06:00,28.0,8.4,30.00,South,180,2.7,2.7,43,0.00,,,0.00,VWS V14.01,2013-04-05 04:06:00,
2013-04-04 23:07:00,28.0,8.4,30.00,WNW,292,0.0,0.9,43,0.00,,,0.00,VWS V14.01,2013-04-05 04:07:00,
2013-04-04 23:08:00,28.0,8.4,30.00,NNW,338,8.7,8.7,43,0.00,,,0.00,VWS V14.01,2013-04-05 04:08:00,
2013-04-04 23:09:00,28.0,8.4,30.00,NW,315,6.0,6.0,43,0.00,,,0.00,VWS V14.01,2013-04-05 04:09:00,
2013-04-04 23:10:00,28.0,8.4,30.00,NNW,338,6.0,6.0,43,0.00,,,0.00,VWS V14.01,2013-04-05 04:10:00,
2013-04-04 23:11:00,27.9,8.3,30.00,NNW,338,6.0,6.0,43,0.00,,,0.00,VWS V14.01,2013-04-05 04:11:00,
2013-04-04 23:12:00,27.9,8.3,30.00,NE,45,0.0,2.0,43,0.00,,,0.00,VWS V14.01,2013-04-05 04:12:00,
2013-04-04 23:13:00,27.9,8.3,30.00,NE,45,0.0,2.0,43,0.00,,,0.00,VWS V14.01,2013-04-05 04:13:00,
2013-04-04 23:14:00,27.9,8.3,30.00,NE,45,0.0,0.0,43,0.00,,,0.00,VWS V14.01,2013-04-05 04:14:00,
2013-04-04 23:15:00,27.7,8.1,30.00,NNW,338,0.0,0.0,43,0.00,,,0.00,VWS V14.01,2013-04-05 04:15:00,
2013-04-04 23:16:00,27.7,8.1,30.00,NNW,338,7.4,7.4,43,0.00,,,0.00,VWS V14.01,2013-04-05 04:16:00,
2013-04-04 23:17:00,27.9,8.3,30.00,NNW,338,7.4,7.4,43,0.00,,,0.00,VWS V14.01,2013-04-05 04:17:00,
2013-04-04 23:18:00,27.7,8.1,30.00,NNW,338,7.4,7.4,43,0.00,,,0.00,VWS V14.01,2013-04-05 04:18:00,
2013-04-04 23:19:00,27.7,8.1,30.00,NNW,338,7.4,7.4,43,0.00,,,0.00,VWS V14.01,2013-04-05 04:19:00,
2013-04-04 23:20:00,27.7,8.1,30.00,NNW,338,7.4,7.4,43,0.00,,,0.00,VWS V14.01,2013-04-05 04:20:00,
2013-04-04 23:21:00,27.7,8.6,30.00,NNW,338,7.4,7.4,44,0.00,,,0.00,VWS V14.01,2013-04-05 04:21:00,
2013-04-04 23:22:00,27.7,8.6,30.00,NNW,338,7.4,7.4,44,0.00,,,0.00,VWS V14.01,2013-04-05 04:22:00,
2013-04-04 23:23:00,27.7,8.1,30.00,NNW,338,0.0,2.5,43,0.00,,,0.00,VWS V14.01,2013-04-05 04:23:00,
2013-04-04 23:24:00,27.7,8.1,30.00,NNW,338,2.7,2.7,43,0.00,,,0.00,VWS V14.01,2013-04-05 04:24:00,
2013-04-04 23:25:00,27.5,7.9,30.00,NNW,338,2.7,2.7,43,0.00,,,0.00,VWS V14.01,2013-04-05 04:25:00,
2013-04-04 23:26:00,27.5,7.9,30.00,NNW,338,2.7,2.7,43,0.00,,,0.00,VWS V14.01,2013-04-05 04:26:00,
2013-04-04 23:27:00,27.3,7.8,30.00,NNW,338,0.0,0.9,43,0.00,,,0.00,VWS V14.01,2013-04-05 04:27:00,
2013-04-04 23:28:00,27.3,7.8,30.00,NNW,338,0.0,0.0,43,0.00,,,0.00,VWS V14.01,2013-04-05 04:28:00,
2013-04-04 23:29:00,27.3,7.8,30.00,NNW,338,0.0,0.0,43,0.00,,,0.00,VWS V14.01,2013-04-05 04:29:00,
2013-04-04 23:30:00,27.1,7.6,30.00,NNW,338,0.0,0.0,43,0.00,,,0.00,VWS V14.01,2013-04-05 04:30:00,
2013-04-04 23:31:00,27.1,7.6,30.00,NNW,338,0.0,0.0,43,0.00,,,0.00,VWS V14.01,2013-04-05 04:31:00,
2013-04-04 23:32:00,27.1,7.6,30.00,NNW,338,0.0,0.0,43,0.00,,,0.00,VWS V14.01,2013-04-05 04:32:00,
2013-04-04 23:33:00,27.1,7.6,30.00,NNW,338,0.0,0.0,43,0.00,,,0.00,VWS V14.01,2013-04-05 04:33:00,
2013-04-04 23:34:00,27.1,7.6,30.00,NNW,338,0.0,0.0,43,0.00,,,0.00,VWS V14.01,2013-04-05 04:34:00,
2013-04-04 23:35:00,27.0,7.5,30.00,NNW,338,0.0,0.0,43,0.00,,,0.00,VWS V14.01,2013-04-05 04:35:00,
2013-04-04 23:36:00,27.0,7.5,30.00,WNW,292,0.0,0.0,43,0.00,,,0.00,VWS V14.01,2013-04-05 04:36:00,
2013-04-04 23:37:00,27.0,7.5,30.00,WSW,248,3.4,3.4,43,0.00,,,0.00,VWS V14.01,2013-04-05 04:37:00,
2013-04-04 23:38:00,27.0,7.5,30.00,WSW,248,2.7,2.7,43,0.00,,,0.00,VWS V14.01,2013-04-05 04:38:00,
2013-04-04 23:39:00,27.0,7.5,30.00,WSW,248,2.7,2.7,43,0.00,,,0.00,VWS V14.01,2013-04-05 04:39:00,
2013-04-04 23:40:00,26.8,7.3,30.00,SSE,158,0.0,0.9,43,0.00,,,0.00,VWS V14.01,2013-04-05 04:40:00,
2013-04-04 23:41:00,26.8,7.3,30.00,WSW,248,4.7,4.7,43,0.00,,,0.00,VWS V14.01,2013-04-05 04:41:00,
2013-04-04 23:42:00,26.8,7.3,30.00,West,270,0.0,1.6,43,0.00,,,0.00,VWS V14.01,2013-04-05 04:42:00,
2013-04-04 23:43:00,26.8,7.3,30.00,West,270,0.0,1.3,43,0.00,,,0.00,VWS V14.01,2013-04-05 04:43:00,
2013-04-04 23:44:00,26.6,7.6,30.00,West,270,0.0,0.0,44,0.00,,,0.00,VWS V14.01,2013-04-05 04:44:00,
2013-04-04 23:45:00,26.6,7.6,30.00,West,270,0.0,0.0,44,0.00,,,0.00,VWS V14.01,2013-04-05 04:45:00,
2013-04-04 23:46:00,26.6,7.6,30.00,NW,315,0.0,0.0,44,0.00,,,0.00,VWS V14.01,2013-04-05 04:46:00,
2013-04-04 23:47:00,26.6,7.6,30.00,NW,315,0.0,0.0,44,0.00,,,0.00,VWS V14.01,2013-04-05 04:47:00,
2013-04-04 23:48:00,26.6,7.6,30.00,NW,315,0.0,0.0,44,0.00,,,0.00,VWS V14.01,2013-04-05 04:48:00,
2013-04-04 23:49:00,26.6,7.6,30.00,NW,315,4.7,4.7,44,0.00,,,0.00,VWS V14.01,2013-04-05 04:49:00,
2013-04-04 23:50:00,26.6,7.6,30.00,NW,315,3.4,3.4,44,0.00,,,0.00,VWS V14.01,2013-04-05 04:50:00,
2013-04-04 23:51:00,26.6,7.6,30.00,NW,315,4.0,4.0,44,0.00,,,0.00,VWS V14.01,2013-04-05 04:51:00,
2013-04-04 23:52:00,26.6,7.6,30.00,NW,315,4.0,4.0,44,0.00,,,0.00,VWS V14.01,2013-04-05 04:52:00,
2013-04-04 23:53:00,26.6,7.6,30.00,NW,315,4.0,4.0,44,0.00,,,0.00,VWS V14.01,2013-04-05 04:53:00,
2013-04-04 23:54:00,26.6,7.6,30.00,WNW,292,2.7,2.7,44,0.00,,,0.00,VWS V14.01,2013-04-05 04:54:00,
2013-04-04 23:55:00,26.6,7.6,30.00,NW,315,4.0,4.0,44,0.00,,,0.00,VWS V14.01,2013-04-05 04:55:00,
2013-04-04 23:56:00,26.6,7.6,30.00,NW,315,4.0,4.0,44,0.00,,,0.00,VWS V14.01,2013-04-05 04:56:00,
2013-04-04 23:57:00,26.6,7.6,30.00,NW,315,0.0,1.3,44,0.00,,,0.00,VWS V14.01,2013-04-05 04:57:00,
2013-04-04 23:58:00,26.6,7.6,30.00,NW,315,0.0,1.3,44,0.00,,,0.00,VWS V14.01,2013-04-05 04:58:00,
2013-04-04 23:59:00,26.6,7.6,30.00,NW,315,2.7,2.7,44,0.00,,,0.00,VWS V14.01,2013-04-05 04:59:00,